Wetterdaten: Samstag, 09.08.2014
Datum Zeit Temp. Aussen +5cm Feuchte Auss Luftdruck Regen Sonnenschein Regendauer UV Solar Windben
09.08.2014 00:00 19,2 C 17,8 C 98 % 1004,6 hPa 0,0 l/m 0 min 0 min 0,0 UV-I 0 W/m 0,0 km/h (0 Bft)
09.08.2014 00:02 19,2 C 17,8 C 98 % 1004,4 hPa 0,0 l/m 0 min 0 min 0,0 UV-I 0 W/m 3,5 km/h (1 Bft)
09.08.2014 00:05 19,2 C 17,8 C 98 % 1004,3 hPa 0,0 l/m 0 min 0 min 0,0 UV-I 0 W/m 14,2 km/h (3 Bft)
09.08.2014 00:06 19,2 C 17,8 C 98 % 1004,2 hPa 0,0 l/m 0 min 0 min 0,0 UV-I 0 W/m 14,2 km/h (3 Bft)
09.08.2014 00:08 19,2 C 17,8 C 98 % 1004,2 hPa 0,0 l/m 0 min 0 min 0,0 UV-I 0 W/m 10,7 km/h (2 Bft)
09.08.2014 00:10 19,2 C 17,8 C 98 % 1004,1 hPa 0,0 l/m 0 min 0 min 0,0 UV-I 0 W/m 17,7 km/h (3 Bft)
09.08.2014 00:12 19,1 C 17,8 C 98 % 1004,1 hPa 0,0 l/m 0 min 0 min 0,0 UV-I 0 W/m 14,2 km/h (3 Bft)
09.08.2014 00:14 19,1 C 17,8 C 98 % 1004,1 hPa 0,0 l/m 0 min 0 min 0,0 UV-I 0 W/m 17,7 km/h (3 Bft)
09.08.2014 00:16 19,2 C 17,8 C 99 % 1004,0 hPa 0,0 l/m 0 min 2 min 0,0 UV-I 0 W/m 21,3 km/h (4 Bft)
09.08.2014 00:18 19,2 C 17,8 C 99 % 1004,1 hPa 0,0 l/m 0 min 2 min 0,0 UV-I 0 W/m 21,3 km/h (4 Bft)
09.08.2014 00:20 19,2 C 17,8 C 99 % 1004,2 hPa 0,2 l/m 0 min 2 min 0,0 UV-I 0 W/m 35,4 km/h (5 Bft)
09.08.2014 00:22 19,2 C 17,8 C 99 % 1004,2 hPa 0,4 l/m 0 min 2 min 0,0 UV-I 0 W/m 24,7 km/h (4 Bft)
09.08.2014 00:24 19,2 C 17,8 C 99 % 1004,0 hPa 0,8 l/m 0 min 2 min 0,0 UV-I 0 W/m 17,7 km/h (3 Bft)
09.08.2014 00:26 19,2 C 17,8 C 99 % 1003,9 hPa 0,2 l/m 0 min 2 min 0,0 UV-I 0 W/m 21,3 km/h (4 Bft)
09.08.2014 00:28 19,2 C 17,8 C 99 % 1003,8 hPa 0,0 l/m 0 min 2 min 0,0 UV-I 0 W/m 17,7 km/h (3 Bft)
09.08.2014 00:30 19,2 C 17,8 C 99 % 1003,8 hPa 0,0 l/m 0 min 0 min 0,0 UV-I 0 W/m 14,2 km/h (3 Bft)
09.08.2014 00:32 19,2 C 17,8 C 99 % 1003,8 hPa 0,0 l/m 0 min 0 min 0,0 UV-I 0 W/m 17,7 km/h (3 Bft)
09.08.2014 00:34 19,2 C 17,8 C 99 % 1003,7 hPa 0,0 l/m 0 min 0 min 0,0 UV-I 0 W/m 17,7 km/h (3 Bft)
09.08.2014 00:36 19,1 C 17,8 C 99 % 1003,7 hPa 0,0 l/m 0 min 0 min 0,0 UV-I 0 W/m 3,5 km/h (1 Bft)
09.08.2014 00:38 19,1 C 17,8 C 99 % 1003,8 hPa 0,0 l/m 0 min 0 min 0,0 UV-I 0 W/m 0,0 km/h (0 Bft)
09.08.2014 00:40 19,1 C 17,8 C 99 % 1003,8 hPa 0,0 l/m 0 min 0 min 0,0 UV-I 0 W/m 3,5 km/h (1 Bft)
09.08.2014 00:42 19,1 C 17,8 C 99 % 1003,7 hPa 0,0 l/m 0 min 0 min 0,0 UV-I 0 W/m 14,2 km/h (3 Bft)
09.08.2014 00:44 19,1 C 17,8 C 99 % 1003,7 hPa 0,0 l/m 0 min 2 min 0,0 UV-I 0 W/m 14,2 km/h (3 Bft)
09.08.2014 00:46 19,1 C 17,8 C 99 % 1003,7 hPa 0,0 l/m 0 min 2 min 0,0 UV-I 0 W/m 17,7 km/h (3 Bft)
09.08.2014 00:48 19,1 C 17,8 C 99 % 1003,6 hPa 0,0 l/m 0 min 2 min 0,0 UV-I 0 W/m 24,7 km/h (4 Bft)
09.08.2014 00:50 19,1 C 17,8 C 99 % 1003,5 hPa 0,0 l/m 0 min 2 min 0,0 UV-I 0 W/m 21,3 km/h (4 Bft)
09.08.2014 00:52 19,1 C 17,8 C 99 % 1003,4 hPa 0,0 l/m 0 min 2 min 0,0 UV-I 0 W/m 24,7 km/h (4 Bft)
09.08.2014 00:54 19,1 C 17,8 C 99 % 1003,4 hPa 0,0 l/m 0 min 2 min 0,0 UV-I 0 W/m 21,3 km/h (4 Bft)
09.08.2014 00:56 19,1 C 17,8 C 99 % 1003,4 hPa 0,0 l/m 0 min 2 min 0,0 UV-I 0 W/m 21,3 km/h (4 Bft)
09.08.2014 00:58 19,1 C 17,8 C 99 % 1003,3 hPa 0,0 l/m 0 min 2 min 0,0 UV-I 0 W/m 17,7 km/h (3 Bft)
09.08.2014 01:00 19,1 C 17,8 C 99 % 1003,4 hPa 0,2 l/m 0 min 2 min 0,0 UV-I 0 W/m 14,2 km/h (3 Bft)
09.08.2014 01:02 19,1 C 17,8 C 99 % 1003,3 hPa 0,0 l/m 0 min 2 min 0,0 UV-I 0 W/m 21,3 km/h (4 Bft)
09.08.2014 01:04 19,1 C 17,8 C 99 % 1003,3 hPa 0,0 l/m 0 min 2 min 0,0 UV-I 0 W/m 17,7 km/h (3 Bft)
09.08.2014 01:06 19,1 C 17,8 C 99 % 1003,3 hPa 0,0 l/m 0 min 2 min 0,0 UV-I 0 W/m 24,7 km/h (4 Bft)
09.08.2014 01:08 19,0 C 17,8 C 99 % 1003,3 hPa 0,0 l/m 0 min 2 min 0,0 UV-I 0 W/m 21,3 km/h (4 Bft)
09.08.2014 01:10 19,1 C 17,8 C 99 % 1003,3 hPa 0,0 l/m 0 min 2 min 0,0 UV-I 0 W/m 31,7 km/h (5 Bft)
09.08.2014 01:12 19,1 C 17,8 C 99 % 1003,4 hPa 0,0 l/m 0 min 2 min 0,0 UV-I 0 W/m 24,7 km/h (4 Bft)
09.08.2014 01:14 19,1 C 17,8 C 99 % 1003,4 hPa 0,2 l/m 0 min 2 min 0,0 UV-I 0 W/m 24,7 km/h (4 Bft)
09.08.2014 01:16 19,1 C 17,8 C 99 % 1003,3 hPa 0,0 l/m 0 min 2 min 0,0 UV-I 0 W/m 24,7 km/h (4 Bft)
09.08.2014 01:18 19,1 C 17,8 C 99 % 1003,3 hPa 0,0 l/m 0 min 2 min 0,0 UV-I 0 W/m 17,7 km/h (3 Bft)
09.08.2014 01:20 19,1 C 17,8 C 99 % 1003,4 hPa 0,0 l/m 0 min 2 min 0,0 UV-I 0 W/m 21,3 km/h (4 Bft)
09.08.2014 01:22 19,1 C 17,8 C 99 % 1003,3 hPa 0,0 l/m 0 min 2 min 0,0 UV-I 0 W/m 17,7 km/h (3 Bft)
09.08.2014 01:24 19,1 C 17,8 C 99 % 1003,3 hPa 0,2 l/m 0 min 2 min 0,0 UV-I 0 W/m 7,1 km/h (2 Bft)
09.08.2014 01:26 19,1 C 17,8 C 99 % 1003,2 hPa 0,0 l/m 0 min 2 min 0,0 UV-I 0 W/m 0,0 km/h (0 Bft)
09.08.2014 01:28 19,1 C 17,8 C 99 % 1003,2 hPa 0,0 l/m 0 min 2 min 0,0 UV-I 0 W/m 21,3 km/h (4 Bft)
09.08.2014 01:30 19,1 C 17,8 C 99 % 1003,1 hPa 0,0 l/m 0 min 0 min 0,0 UV-I 0 W/m 14,2 km/h (3 Bft)
09.08.2014 01:32 19,1 C 17,8 C 99 % 1003,3 hPa 0,0 l/m 0 min 0 min 0,0 UV-I 0 W/m 21,3 km/h (4 Bft)
09.08.2014 01:34 19,1 C 17,8 C 99 % 1003,1 hPa 0,0 l/m 0 min 2 min 0,0 UV-I 0 W/m 24,7 km/h (4 Bft)
09.08.2014 01:36 19,1 C 17,8 C 99 % 1003,2 hPa 0,0 l/m 0 min 2 min 0,0 UV-I 0 W/m 24,7 km/h (4 Bft)
09.08.2014 01:38 19,1 C 17,8 C 99 % 1003,1 hPa 0,0 l/m 0 min 2 min 0,0 UV-I 0 W/m 28,2 km/h (4 Bft)
09.08.2014 01:40 19,1 C 17,8 C 99 % 1003,1 hPa 0,0 l/m 0 min 2 min 0,0 UV-I 0 W/m 24,7 km/h (4 Bft)
09.08.2014 01:42 19,1 C 17,8 C 99 % 1003,1 hPa 0,0 l/m 0 min 2 min 0,0 UV-I 0 W/m 21,3 km/h (4 Bft)
09.08.2014 01:44 19,1 C 17,8 C 99 % 1003,1 hPa 0,0 l/m 0 min 2 min 0,0 UV-I 0 W/m 21,3 km/h (4 Bft)
09.08.2014 01:46 19,1 C 17,8 C 99 % 1003,1 hPa 0,0 l/m 0 min 2 min 0,0 UV-I 0 W/m 21,3 km/h (4 Bft)
09.08.2014 01:48 19,1 C 17,8 C 99 % 1003,0 hPa 0,2 l/m 0 min 2 min 0,0 UV-I 0 W/m 24,7 km/h (4 Bft)
09.08.2014 01:50 19,1 C 17,8 C 99 % 1003,0 hPa 0,0 l/m 0 min 0 min 0,0 UV-I 0 W/m 14,2 km/h (3 Bft)
09.08.2014 01:52 19,1 C 17,8 C 99 % 1003,0 hPa 0,0 l/m 0 min 2 min 0,0 UV-I 0 W/m 21,3 km/h (4 Bft)
09.08.2014 01:54 19,1 C 17,8 C 99 % 1003,0 hPa 0,0 l/m 0 min 0 min 0,0 UV-I 0 W/m 21,3 km/h (4 Bft)
09.08.2014 01:56 19,1 C 17,8 C 99 % 1003,0 hPa 0,0 l/m 0 min 0 min 0,0 UV-I 0 W/m 24,7 km/h (4 Bft)
09.08.2014 01:58 19,1 C 17,8 C 99 % 1003,1 hPa 0,0 l/m 0 min 0 min 0,0 UV-I 0 W/m 28,2 km/h (4 Bft)
09.08.2014 02:00 19,1 C 17,8 C 99 % 1003,1 hPa 0,0 l/m 0 min 0 min 0,0 UV-I 0 W/m 28,2 km/h (4 Bft)
09.08.2014 02:02 19,1 C 17,8 C 99 % 1003,1 hPa 0,0 l/m 0 min 2 min 0,0 UV-I 0 W/m 21,3 km/h (4 Bft)
09.08.2014 02:04 19,1 C 17,8 C 99 % 1003,1 hPa 0,0 l/m 0 min 2 min 0,0 UV-I 0 W/m 24,7 km/h (4 Bft)
09.08.2014 02:06 19,1 C 17,8 C 99 % 1003,1 hPa 0,0 l/m 0 min 0 min 0,0 UV-I 0 W/m 21,3 km/h (4 Bft)
09.08.2014 02:08 19,1 C 17,8 C 99 % 1003,1 hPa 0,0 l/m 0 min 2 min 0,0 UV-I 0 W/m 24,7 km/h (4 Bft)
09.08.2014 02:10 19,1 C 17,8 C 99 % 1003,1 hPa 0,0 l/m 0 min 2 min 0,0 UV-I 0 W/m 31,7 km/h (5 Bft)
09.08.2014 02:12 19,0 C 17,8 C 99 % 1003,1 hPa 0,0 l/m 0 min 2 min 0,0 UV-I 0 W/m 28,2 km/h (4 Bft)
09.08.2014 02:14 19,0 C 17,8 C 99 % 1003,0 hPa 0,0 l/m 0 min 2 min 0,0 UV-I 0 W/m 35,4 km/h (5 Bft)
09.08.2014 02:16 19,0 C 17,8 C 99 % 1003,0 hPa 0,0 l/m 0 min 2 min 0,0 UV-I 0 W/m 24,7 km/h (4 Bft)
09.08.2014 02:18 19,0 C 17,2 C 99 % 1002,9 hPa 0,0 l/m 0 min 2 min 0,0 UV-I 0 W/m 24,7 km/h (4 Bft)
09.08.2014 02:20 19,0 C 17,2 C 99 % 1003,0 hPa 0,0 l/m 0 min 2 min 0,0 UV-I 0 W/m 31,7 km/h (5 Bft)
09.08.2014 02:22 19,0 C 17,2 C 99 % 1002,9 hPa 0,0 l/m 0 min 2 min 0,0 UV-I 0 W/m 28,2 km/h (4 Bft)
09.08.2014 02:24 19,0 C 17,2 C 99 % 1002,9 hPa 0,0 l/m 0 min 2 min 0,0 UV-I 0 W/m 38,9 km/h (6 Bft)
09.08.2014 02:26 19,0 C 17,2 C 99 % 1002,8 hPa 0,0 l/m 0 min 2 min 0,0 UV-I 0 W/m 35,4 km/h (5 Bft)
09.08.2014 02:28 19,0 C 17,2 C 99 % 1002,8 hPa 0,0 l/m 0 min 2 min 0,0 UV-I 0 W/m 35,4 km/h (5 Bft)
09.08.2014 02:30 19,0 C 17,2 C 99 % 1002,8 hPa 0,0 l/m 0 min 2 min 0,0 UV-I 0 W/m 38,9 km/h (6 Bft)
09.08.2014 02:32 19,0 C 17,2 C 99 % 1002,8 hPa 0,0 l/m 0 min 2 min 0,0 UV-I 0 W/m 49,5 km/h (6 Bft)
09.08.2014 02:34 19,0 C 17,2 C 99 % 1002,9 hPa 0,0 l/m 0 min 2 min 0,0 UV-I 0 W/m 28,2 km/h (4 Bft)
09.08.2014 02:36 19,0 C 17,2 C 99 % 1002,8 hPa 0,0 l/m 0 min 2 min 0,0 UV-I 0 W/m 35,4 km/h (5 Bft)
09.08.2014 02:38 19,0 C 17,2 C 99 % 1002,8 hPa 0,0 l/m 0 min 0 min 0,0 UV-I 0 W/m 28,2 km/h (4 Bft)
09.08.2014 02:40 19,0 C 17,2 C 99 % 1002,8 hPa 0,0 l/m 0 min 0 min 0,0 UV-I 0 W/m 31,7 km/h (5 Bft)
09.08.2014 02:42 19,0 C 17,2 C 99 % 1002,8 hPa 0,0 l/m 0 min 2 min 0,0 UV-I 0 W/m 31,7 km/h (5 Bft)
09.08.2014 02:44 19,0 C 17,2 C 99 % 1002,7 hPa 0,0 l/m 0 min 2 min 0,0 UV-I 0 W/m 46,0 km/h (6 Bft)
09.08.2014 02:46 19,0 C 17,2 C 99 % 1002,7 hPa 0,0 l/m 0 min 2 min 0,0 UV-I 0 W/m 35,4 km/h (5 Bft)
09.08.2014 02:48 19,1 C 17,2 C 99 % 1002,7 hPa 0,0 l/m 0 min 2 min 0,0 UV-I 0 W/m 28,2 km/h (4 Bft)
09.08.2014 02:50 19,0 C 17,2 C 99 % 1002,7 hPa 0,0 l/m 0 min 2 min 0,0 UV-I 0 W/m 38,9 km/h (6 Bft)
09.08.2014 02:52 19,1 C 17,8 C 99 % 1002,7 hPa 0,0 l/m 0 min 2 min 0,0 UV-I 0 W/m 28,2 km/h (4 Bft)
09.08.2014 02:54 19,1 C 17,8 C 99 % 1002,6 hPa 0,0 l/m 0 min 2 min 0,0 UV-I 0 W/m 38,9 km/h (6 Bft)
09.08.2014 02:56 19,1 C 17,8 C 99 % 1002,5 hPa 0,0 l/m 0 min 2 min 0,0 UV-I 0 W/m 28,2 km/h (4 Bft)
09.08.2014 02:58 19,1 C 17,8 C 99 % 1002,4 hPa 0,0 l/m 0 min 2 min 0,0 UV-I 0 W/m 31,7 km/h (5 Bft)
09.08.2014 03:00 19,1 C 17,8 C 99 % 1002,4 hPa 0,0 l/m 0 min 2 min 0,0 UV-I 0 W/m 35,4 km/h (5 Bft)
09.08.2014 03:02 19,1 C 17,8 C 99 % 1002,3 hPa 0,0 l/m 0 min 2 min 0,0 UV-I 0 W/m 38,9 km/h (6 Bft)
09.08.2014 03:04 19,1 C 17,8 C 99 % 1002,2 hPa 0,0 l/m 0 min 2 min 0,0 UV-I 0 W/m 31,7 km/h (5 Bft)
09.08.2014 03:06 19,1 C 17,8 C 99 % 1002,2 hPa 0,0 l/m 0 min 2 min 0,0 UV-I 0 W/m 28,2 km/h (4 Bft)
09.08.2014 03:08 19,1 C 17,8 C 99 % 1002,2 hPa 0,2 l/m 0 min 2 min 0,0 UV-I 0 W/m 35,4 km/h (5 Bft)
09.08.2014 03:10 19,1 C 17,2 C 99 % 1002,2 hPa 0,0 l/m 0 min 2 min 0,0 UV-I 0 W/m 31,7 km/h (5 Bft)
09.08.2014 03:12 19,1 C 17,2 C 99 % 1002,2 hPa 0,0 l/m 0 min 2 min 0,0 UV-I 0 W/m 31,7 km/h (5 Bft)
09.08.2014 03:14 19,1 C 17,2 C 99 % 1002,2 hPa 0,0 l/m 0 min 2 min 0,0 UV-I 0 W/m 38,9 km/h (6 Bft)
09.08.2014 03:16 19,1 C 17,2 C 99 % 1002,1 hPa 0,0 l/m 0 min 2 min 0,0 UV-I 0 W/m 31,7 km/h (5 Bft)
09.08.2014 03:18 19,0 C 17,2 C 99 % 1002,1 hPa 0,0 l/m 0 min 2 min 0,0 UV-I 0 W/m 24,7 km/h (4 Bft)
09.08.2014 03:20 19,0 C 17,2 C 99 % 1002,1 hPa 0,0 l/m 0 min 2 min 0,0 UV-I 0 W/m 38,9 km/h (6 Bft)
09.08.2014 03:22 19,0 C 17,2 C 99 % 1002,1 hPa 0,0 l/m 0 min 2 min 0,0 UV-I 0 W/m 49,5 km/h (6 Bft)
09.08.2014 03:24 19,0 C 17,2 C 99 % 1002,1 hPa 0,2 l/m 0 min 2 min 0,0 UV-I 0 W/m 28,2 km/h (4 Bft)
09.08.2014 03:26 19,0 C 17,2 C 99 % 1002,2 hPa 0,0 l/m 0 min 2 min 0,0 UV-I 0 W/m 28,2 km/h (4 Bft)
09.08.2014 03:28 19,0 C 17,2 C 99 % 1002,1 hPa 0,0 l/m 0 min 2 min 0,0 UV-I 0 W/m 31,7 km/h (5 Bft)
09.08.2014 03:30 18,9 C 17,2 C 99 % 1002,1 hPa 0,0 l/m 0 min 2 min 0,0 UV-I 0 W/m 24,7 km/h (4 Bft)
09.08.2014 03:32 18,9 C 17,2 C 99 % 1002,1 hPa 0,0 l/m 0 min 2 min 0,0 UV-I 0 W/m 35,4 km/h (5 Bft)
09.08.2014 03:34 18,9 C 17,2 C 99 % 1002,1 hPa 0,2 l/m 0 min 2 min 0,0 UV-I 0 W/m 24,7 km/h (4 Bft)
09.08.2014 03:36 18,9 C 17,2 C 99 % 1002,1 hPa 0,0 l/m 0 min 2 min 0,0 UV-I 0 W/m 21,3 km/h (4 Bft)
09.08.2014 03:38 18,9 C 17,2 C 99 % 1002,1 hPa 0,0 l/m 0 min 2 min 0,0 UV-I 0 W/m 24,7 km/h (4 Bft)
09.08.2014 03:40 18,9 C 17,2 C 99 % 1002,1 hPa 0,0 l/m 0 min 2 min 0,0 UV-I 0 W/m 24,7 km/h (4 Bft)
09.08.2014 03:42 18,9 C 17,2 C 99 % 1002,2 hPa 0,0 l/m 0 min 2 min 0,0 UV-I 0 W/m 14,2 km/h (3 Bft)
09.08.2014 03:44 18,9 C 17,2 C 98 % 1002,2 hPa 0,0 l/m 0 min 2 min 0,0 UV-I 0 W/m 42,4 km/h (6 Bft)
09.08.2014 03:46 18,9 C 17,2 C 98 % 1002,2 hPa 0,0 l/m 0 min 2 min 0,0 UV-I 0 W/m 31,7 km/h (5 Bft)
09.08.2014 03:48 18,9 C 17,2 C 98 % 1002,3 hPa 0,0 l/m 0 min 2 min 0,0 UV-I 0 W/m 24,7 km/h (4 Bft)
09.08.2014 03:50 18,8 C 17,2 C 98 % 1002,4 hPa 0,0 l/m 0 min 2 min 0,0 UV-I 0 W/m 35,4 km/h (5 Bft)
09.08.2014 03:52 18,8 C 17,2 C 98 % 1002,6 hPa 0,0 l/m 0 min 0 min 0,0 UV-I 0 W/m 31,7 km/h (5 Bft)
09.08.2014 03:54 18,8 C 17,2 C 98 % 1002,6 hPa 0,0 l/m 0 min 2 min 0,0 UV-I 0 W/m 28,2 km/h (4 Bft)
09.08.2014 03:56 18,8 C 17,2 C 98 % 1002,7 hPa 0,0 l/m 0 min 2 min 0,0 UV-I 0 W/m 31,7 km/h (5 Bft)
09.08.2014 03:58 18,8 C 17,2 C 98 % 1002,7 hPa 0,0 l/m 0 min 2 min 0,0 UV-I 0 W/m 21,3 km/h (4 Bft)
09.08.2014 04:00 18,8 C 17,2 C 98 % 1002,7 hPa 0,0 l/m 0 min 2 min 0,0 UV-I 0 W/m 38,9 km/h (6 Bft)
09.08.2014 04:02 18,8 C 17,2 C 98 % 1002,7 hPa 0,2 l/m 0 min 2 min 0,0 UV-I 0 W/m 28,2 km/h (4 Bft)
09.08.2014 04:07 18,7 C 17,2 C 99 % 1002,9 hPa 0,0 l/m 0 min 2 min 0,0 UV-I 0 W/m 35,4 km/h (5 Bft)
09.08.2014 04:08 18,7 C 17,2 C 99 % 1002,9 hPa 0,0 l/m 0 min 1 min 0,0 UV-I 0 W/m 31,7 km/h (5 Bft)
09.08.2014 04:10 18,7 C 17,2 C 99 % 1002,9 hPa 0,0 l/m 0 min 2 min 0,0 UV-I 0 W/m 28,2 km/h (4 Bft)
09.08.2014 04:12 18,7 C 17,2 C 99 % 1002,8 hPa 0,0 l/m 0 min 2 min 0,0 UV-I 0 W/m 46,0 km/h (6 Bft)
09.08.2014 04:14 18,7 C 17,2 C 98 % 1002,7 hPa 0,0 l/m 0 min 2 min 0,0 UV-I 0 W/m 38,9 km/h (6 Bft)
09.08.2014 04:16 18,7 C 17,2 C 99 % 1002,9 hPa 0,0 l/m 0 min 2 min 0,0 UV-I 0 W/m 31,7 km/h (5 Bft)
09.08.2014 04:18 18,7 C 17,2 C 98 % 1002,9 hPa 0,0 l/m 0 min 2 min 0,0 UV-I 0 W/m 28,2 km/h (4 Bft)
09.08.2014 04:20 18,6 C 17,2 C 98 % 1002,9 hPa 0,0 l/m 0 min 2 min 0,0 UV-I 0 W/m 42,4 km/h (6 Bft)
09.08.2014 04:22 18,6 C 17,2 C 98 % 1002,9 hPa 0,0 l/m 0 min 0 min 0,0 UV-I 0 W/m 53,0 km/h (7 Bft)
09.08.2014 04:24 18,6 C 17,2 C 98 % 1002,9 hPa 0,0 l/m 0 min 2 min 0,0 UV-I 0 W/m 49,5 km/h (6 Bft)
09.08.2014 04:26 18,6 C 17,2 C 98 % 1002,9 hPa 0,0 l/m 0 min 2 min 0,0 UV-I 0 W/m 24,7 km/h (4 Bft)
09.08.2014 04:28 18,6 C 17,2 C 98 % 1002,9 hPa 0,0 l/m 0 min 2 min 0,0 UV-I 0 W/m 35,4 km/h (5 Bft)
09.08.2014 04:30 18,6 C 17,2 C 98 % 1002,9 hPa 0,0 l/m 0 min 0 min 0,0 UV-I 0 W/m 35,4 km/h (5 Bft)
09.08.2014 04:32 18,6 C 17,2 C 98 % 1002,9 hPa 0,0 l/m 0 min 0 min 0,0 UV-I 0 W/m 28,2 km/h (4 Bft)
09.08.2014 04:34 18,6 C 17,2 C 98 % 1002,8 hPa 0,0 l/m 0 min 0 min 0,0 UV-I 0 W/m 31,7 km/h (5 Bft)
09.08.2014 04:36 18,6 C 17,2 C 98 % 1002,8 hPa 0,0 l/m 0 min 0 min 0,0 UV-I 0 W/m 42,4 km/h (6 Bft)
09.08.2014 04:38 18,6 C 17,2 C 98 % 1002,8 hPa 0,0 l/m 0 min 0 min 0,0 UV-I 0 W/m 42,4 km/h (6 Bft)
09.08.2014 04:40 18,6 C 17,2 C 98 % 1002,8 hPa 0,0 l/m 0 min 0 min 0,0 UV-I 0 W/m 42,4 km/h (6 Bft)
09.08.2014 04:42 18,5 C 17,2 C 98 % 1002,8 hPa 0,0 l/m 0 min 0 min 0,0 UV-I 0 W/m 46,0 km/h (6 Bft)
09.08.2014 04:44 18,5 C 17,2 C 98 % 1002,8 hPa 0,0 l/m 0 min 0 min 0,0 UV-I 0 W/m 35,4 km/h (5 Bft)
09.08.2014 04:46 18,5 C 17,2 C 98 % 1002,8 hPa 0,0 l/m 0 min 0 min 0,0 UV-I 0 W/m 35,4 km/h (5 Bft)
09.08.2014 04:48 18,5 C 17,2 C 98 % 1002,8 hPa 0,0 l/m 0 min 0 min 0,0 UV-I 0 W/m 28,2 km/h (4 Bft)
09.08.2014 04:50 18,5 C 16,7 C 98 % 1002,8 hPa 0,0 l/m 0 min 0 min 0,0 UV-I 0 W/m 28,2 km/h (4 Bft)
09.08.2014 04:52 18,4 C 16,7 C 98 % 1002,8 hPa 0,0 l/m 0 min 0 min 0,0 UV-I 0 W/m 35,4 km/h (5 Bft)
09.08.2014 04:54 18,4 C 16,7 C 98 % 1002,8 hPa 0,0 l/m 0 min 0 min 0,0 UV-I 0 W/m 42,4 km/h (6 Bft)
09.08.2014 04:56 18,4 C 16,7 C 98 % 1002,8 hPa 0,0 l/m 0 min 0 min 0,0 UV-I 0 W/m 31,7 km/h (5 Bft)
09.08.2014 04:58 18,4 C 16,7 C 98 % 1002,8 hPa 0,0 l/m 0 min 0 min 0,0 UV-I 0 W/m 28,2 km/h (4 Bft)
09.08.2014 05:00 18,4 C 16,7 C 98 % 1002,8 hPa 0,0 l/m 0 min 0 min 0,0 UV-I 0 W/m 42,4 km/h (6 Bft)
09.08.2014 05:02 18,4 C 17,2 C 98 % 1002,7 hPa 0,0 l/m 0 min 0 min 0,0 UV-I 0 W/m 38,9 km/h (6 Bft)
09.08.2014 05:04 18,4 C 17,2 C 98 % 1002,8 hPa 0,0 l/m 0 min 0 min 0,0 UV-I 0 W/m 38,9 km/h (6 Bft)
09.08.2014 05:06 18,4 C 17,2 C 98 % 1002,8 hPa 0,0 l/m 0 min 0 min 0,0 UV-I 0 W/m 46,0 km/h (6 Bft)
09.08.2014 05:08 18,4 C 17,2 C 98 % 1002,8 hPa 0,0 l/m 0 min 0 min 0,0 UV-I 0 W/m 35,4 km/h (5 Bft)
09.08.2014 05:10 18,4 C 16,7 C 98 % 1002,8 hPa 0,0 l/m 0 min 0 min 0,0 UV-I 0 W/m 35,4 km/h (5 Bft)
09.08.2014 05:12 18,4 C 16,7 C 98 % 1002,8 hPa 0,0 l/m 0 min 0 min 0,0 UV-I 0 W/m 46,0 km/h (6 Bft)
09.08.2014 05:14 18,4 C 16,7 C 98 % 1002,7 hPa 0,0 l/m 0 min 0 min 0,0 UV-I 0 W/m 46,0 km/h (6 Bft)
09.08.2014 05:16 18,4 C 16,7 C 98 % 1002,8 hPa 0,0 l/m 0 min 0 min 0,0 UV-I 0 W/m 56,5 km/h (7 Bft)
09.08.2014 05:18 18,4 C 16,7 C 98 % 1002,8 hPa 0,0 l/m 0 min 0 min 0,0 UV-I 0 W/m 42,4 km/h (6 Bft)
09.08.2014 05:20 18,4 C 16,7 C 97 % 1002,8 hPa 0,0 l/m 0 min 0 min 0,0 UV-I 0 W/m 35,4 km/h (5 Bft)
09.08.2014 05:22 18,4 C 16,7 C 97 % 1002,8 hPa 0,0 l/m 0 min 0 min 0,0 UV-I 0 W/m 53,0 km/h (7 Bft)
09.08.2014 05:24 18,4 C 16,7 C 97 % 1002,8 hPa 0,0 l/m 0 min 0 min 0,0 UV-I 0 W/m 35,4 km/h (5 Bft)
09.08.2014 05:26 18,4 C 16,7 C 97 % 1002,8 hPa 0,0 l/m 0 min 0 min 0,0 UV-I 0 W/m 35,4 km/h (5 Bft)
09.08.2014 05:28 18,4 C 16,7 C 97 % 1002,7 hPa 0,0 l/m 0 min 0 min 0,0 UV-I 0 W/m 42,4 km/h (6 Bft)
09.08.2014 05:30 18,4 C 16,7 C 97 % 1002,8 hPa 0,0 l/m 0 min 0 min 0,0 UV-I 0 W/m 35,4 km/h (5 Bft)
09.08.2014 05:32 18,4 C 16,7 C 97 % 1002,9 hPa 0,0 l/m 0 min 0 min 0,0 UV-I 0 W/m 35,4 km/h (5 Bft)
09.08.2014 05:34 18,4 C 16,7 C 97 % 1002,9 hPa 0,0 l/m 0 min 0 min 0,0 UV-I 0 W/m 24,7 km/h (4 Bft)
09.08.2014 05:36 18,4 C 16,7 C 96 % 1002,9 hPa 0,0 l/m 0 min 0 min 0,0 UV-I 0 W/m 38,9 km/h (6 Bft)
09.08.2014 05:38 18,4 C 16,7 C 96 % 1002,9 hPa 0,0 l/m 0 min 0 min 0,0 UV-I 0 W/m 24,7 km/h (4 Bft)
09.08.2014 05:40 18,4 C 16,7 C 96 % 1002,9 hPa 0,0 l/m 0 min 0 min 0,0 UV-I 0 W/m 35,4 km/h (5 Bft)
09.08.2014 05:42 18,4 C 16,7 C 96 % 1002,9 hPa 0,0 l/m 0 min 0 min 0,0 UV-I 0 W/m 42,4 km/h (6 Bft)
09.08.2014 05:44 18,4 C 16,7 C 96 % 1002,9 hPa 0,0 l/m 0 min 0 min 0,0 UV-I 0 W/m 42,4 km/h (6 Bft)
09.08.2014 05:46 18,4 C 16,7 C 96 % 1002,8 hPa 0,0 l/m 0 min 0 min 0,0 UV-I 0 W/m 38,9 km/h (6 Bft)
09.08.2014 05:48 18,4 C 16,7 C 96 % 1002,9 hPa 0,0 l/m 0 min 0 min 0,0 UV-I 0 W/m 35,4 km/h (5 Bft)
09.08.2014 05:50 18,5 C 16,7 C 95 % 1002,9 hPa 0,0 l/m 0 min 0 min 0,0 UV-I 0 W/m 35,4 km/h (5 Bft)
09.08.2014 05:52 18,5 C 16,7 C 95 % 1002,8 hPa 0,0 l/m 0 min 0 min 0,0 UV-I 0 W/m 28,2 km/h (4 Bft)
09.08.2014 05:54 18,4 C 16,7 C 95 % 1002,9 hPa 0,0 l/m 0 min 0 min 0,0 UV-I 0 W/m 35,4 km/h (5 Bft)
09.08.2014 05:56 18,4 C 16,7 C 95 % 1003,0 hPa 0,0 l/m 0 min 0 min 0,0 UV-I 0 W/m 31,7 km/h (5 Bft)
09.08.2014 05:58 18,4 C 16,7 C 95 % 1003,0 hPa 0,0 l/m 0 min 0 min 0,0 UV-I 0 W/m 42,4 km/h (6 Bft)
09.08.2014 06:00 18,4 C 16,7 C 95 % 1002,9 hPa 0,0 l/m 0 min 0 min 0,0 UV-I 0 W/m 28,2 km/h (4 Bft)
09.08.2014 06:02 18,5 C 16,7 C 95 % 1002,9 hPa 0,0 l/m 0 min 0 min 0,0 UV-I 0 W/m 38,9 km/h (6 Bft)
09.08.2014 06:05 18,5 C 16,7 C 95 % 1002,9 hPa 0,0 l/m 0 min 0 min 0,0 UV-I 0 W/m 42,4 km/h (6 Bft)
09.08.2014 06:06 18,5 C 16,7 C 95 % 1002,9 hPa 0,0 l/m 0 min 0 min 0,0 UV-I 0 W/m 35,4 km/h (5 Bft)
09.08.2014 06:08 18,5 C 16,7 C 95 % 1003,0 hPa 0,0 l/m 0 min 0 min 0,0 UV-I 0 W/m 35,4 km/h (5 Bft)
09.08.2014 06:10 18,5 C 16,7 C 94 % 1002,9 hPa 0,0 l/m 0 min 0 min 0,0 UV-I 0 W/m 42,4 km/h (6 Bft)
09.08.2014 06:12 18,5 C 16,7 C 94 % 1002,9 hPa 0,0 l/m 0 min 0 min 0,0 UV-I 0 W/m 49,5 km/h (6 Bft)
09.08.2014 06:14 18,6 C 16,7 C 94 % 1002,9 hPa 0,0 l/m 0 min 0 min 0,0 UV-I 0 W/m 49,5 km/h (6 Bft)
09.08.2014 06:16 18,6 C 16,7 C 94 % 1002,9 hPa 0,0 l/m 0 min 0 min 0,0 UV-I 0 W/m 38,9 km/h (6 Bft)
09.08.2014 06:18 18,5 C 16,7 C 94 % 1002,9 hPa 0,0 l/m 0 min 0 min 0,0 UV-I 7 W/m 42,4 km/h (6 Bft)
09.08.2014 06:20 18,5 C 16,7 C 94 % 1002,9 hPa 0,0 l/m 0 min 0 min 0,0 UV-I 7 W/m 35,4 km/h (5 Bft)
09.08.2014 06:22 18,5 C 16,7 C 94 % 1002,9 hPa 0,0 l/m 0 min 0 min 0,0 UV-I 10 W/m 42,4 km/h (6 Bft)
09.08.2014 06:24 18,5 C 16,7 C 94 % 1002,9 hPa 0,0 l/m 0 min 0 min 0,0 UV-I 11 W/m 35,4 km/h (5 Bft)
09.08.2014 06:26 18,5 C 16,7 C 93 % 1003,0 hPa 0,0 l/m 0 min 0 min 0,0 UV-I 8 W/m 46,0 km/h (6 Bft)
09.08.2014 06:28 18,5 C 16,7 C 93 % 1002,9 hPa 0,0 l/m 0 min 0 min 0,0 UV-I 7 W/m 42,4 km/h (6 Bft)
09.08.2014 06:30 18,6 C 16,7 C 93 % 1002,9 hPa 0,0 l/m 0 min 0 min 0,0 UV-I 7 W/m 42,4 km/h (6 Bft)
09.08.2014 06:32 18,6 C 16,7 C 93 % 1002,9 hPa 0,0 l/m 0 min 0 min 0,0 UV-I 7 W/m 42,4 km/h (6 Bft)
09.08.2014 06:34 18,6 C 16,7 C 93 % 1002,9 hPa 0,0 l/m 0 min 0 min 0,0 UV-I 8 W/m 31,7 km/h (5 Bft)
09.08.2014 06:36 18,5 C 16,7 C 93 % 1002,8 hPa 0,0 l/m 0 min 0 min 0,0 UV-I 11 W/m 42,4 km/h (6 Bft)
09.08.2014 06:38 18,6 C 16,7 C 93 % 1002,9 hPa 0,0 l/m 0 min 0 min 0,0 UV-I 12 W/m 35,4 km/h (5 Bft)
09.08.2014 06:40 18,6 C 16,7 C 93 % 1002,9 hPa 0,0 l/m 0 min 0 min 0,0 UV-I 15 W/m 49,5 km/h (6 Bft)
09.08.2014 06:42 18,6 C 16,7 C 93 % 1002,9 hPa 0,0 l/m 0 min 0 min 0,0 UV-I 20 W/m 31,7 km/h (5 Bft)
09.08.2014 06:44 18,6 C 16,7 C 93 % 1002,9 hPa 0,0 l/m 0 min 0 min 0,0 UV-I 21 W/m 38,9 km/h (6 Bft)
09.08.2014 06:46 18,6 C 16,7 C 93 % 1002,9 hPa 0,0 l/m 0 min 0 min 0,0 UV-I 25 W/m 42,4 km/h (6 Bft)
09.08.2014 06:48 18,6 C 16,7 C 93 % 1002,8 hPa 0,0 l/m 0 min 0 min 0,0 UV-I 32 W/m 42,4 km/h (6 Bft)
09.08.2014 06:50 18,6 C 16,7 C 93 % 1002,8 hPa 0,0 l/m 0 min 0 min 0,0 UV-I 36 W/m 31,7 km/h (5 Bft)
09.08.2014 06:52 18,6 C 16,7 C 93 % 1002,8 hPa 0,0 l/m 0 min 0 min 0,0 UV-I 36 W/m 38,9 km/h (6 Bft)
09.08.2014 06:54 18,6 C 16,7 C 93 % 1002,8 hPa 0,0 l/m 0 min 0 min 0,0 UV-I 38 W/m 35,4 km/h (5 Bft)
09.08.2014 06:56 18,6 C 16,7 C 93 % 1002,9 hPa 0,0 l/m 0 min 0 min 0,0 UV-I 46 W/m 53,0 km/h (7 Bft)
09.08.2014 06:58 18,6 C 16,7 C 93 % 1002,9 hPa 0,0 l/m 0 min 0 min 0,0 UV-I 44 W/m 28,2 km/h (4 Bft)
09.08.2014 07:00 18,6 C 16,7 C 93 % 1002,9 hPa 0,0 l/m 0 min 0 min 0,0 UV-I 41 W/m 38,9 km/h (6 Bft)
09.08.2014 07:02 18,6 C 17,2 C 93 % 1002,9 hPa 0,0 l/m 0 min 0 min 0,0 UV-I 44 W/m 42,4 km/h (6 Bft)
09.08.2014 07:04 18,7 C 17,2 C 93 % 1002,9 hPa 0,0 l/m 0 min 0 min 0,0 UV-I 41 W/m 38,9 km/h (6 Bft)
09.08.2014 07:06 18,7 C 17,2 C 93 % 1002,9 hPa 0,0 l/m 0 min 0 min 0,0 UV-I 53 W/m 35,4 km/h (5 Bft)
09.08.2014 07:08 18,7 C 17,2 C 93 % 1002,9 hPa 0,0 l/m 2 min 0 min 0,0 UV-I 66 W/m 42,4 km/h (6 Bft)
09.08.2014 07:10 18,7 C 17,2 C 93 % 1003,0 hPa 0,0 l/m 2 min 0 min 0,0 UV-I 81 W/m 42,4 km/h (6 Bft)
09.08.2014 07:12 18,7 C 17,2 C 93 % 1003,0 hPa 0,0 l/m 2 min 0 min 0,0 UV-I 83 W/m 38,9 km/h (6 Bft)
09.08.2014 07:14 18,8 C 17,2 C 93 % 1003,1 hPa 0,0 l/m 2 min 0 min 0,0 UV-I 86 W/m 46,0 km/h (6 Bft)
09.08.2014 07:16 18,8 C 17,2 C 93 % 1003,1 hPa 0,0 l/m 2 min 0 min 0,0 UV-I 96 W/m 35,4 km/h (5 Bft)
09.08.2014 07:18 18,8 C 17,2 C 93 % 1003,3 hPa 0,0 l/m 0 min 0 min 0,0 UV-I 59 W/m 35,4 km/h (5 Bft)
09.08.2014 07:20 18,9 C 17,2 C 92 % 1003,2 hPa 0,0 l/m 0 min 0 min 0,0 UV-I 49 W/m 46,0 km/h (6 Bft)
09.08.2014 07:22 18,9 C 17,2 C 93 % 1003,3 hPa 0,0 l/m 0 min 0 min 0,0 UV-I 54 W/m 49,5 km/h (6 Bft)
09.08.2014 07:24 18,9 C 17,2 C 93 % 1003,3 hPa 0,0 l/m 0 min 0 min 0,0 UV-I 48 W/m 28,2 km/h (4 Bft)
09.08.2014 07:26 18,9 C 17,2 C 93 % 1003,3 hPa 0,0 l/m 0 min 0 min 0,0 UV-I 62 W/m 49,5 km/h (6 Bft)
09.08.2014 07:28 18,9 C 17,2 C 93 % 1003,3 hPa 0,0 l/m 0 min 0 min 0,0 UV-I 86 W/m 31,7 km/h (5 Bft)
09.08.2014 07:30 18,9 C 17,2 C 93 % 1003,4 hPa 0,0 l/m 0 min 0 min 0,0 UV-I 89 W/m 46,0 km/h (6 Bft)
09.08.2014 07:32 19,0 C 17,2 C 92 % 1003,4 hPa 0,0 l/m 0 min 0 min 0,0 UV-I 60 W/m 38,9 km/h (6 Bft)
09.08.2014 07:34 19,0 C 17,2 C 92 % 1003,5 hPa 0,0 l/m 0 min 0 min 0,0 UV-I 51 W/m 42,4 km/h (6 Bft)
09.08.2014 07:36 19,0 C 17,2 C 92 % 1003,6 hPa 0,0 l/m 0 min 0 min 0,0 UV-I 50 W/m 38,9 km/h (6 Bft)
09.08.2014 07:38 19,1 C 17,2 C 92 % 1003,5 hPa 0,0 l/m 0 min 0 min 0,0 UV-I 59 W/m 31,7 km/h (5 Bft)
09.08.2014 07:40 19,1 C 17,2 C 92 % 1003,5 hPa 0,0 l/m 0 min 0 min 0,0 UV-I 59 W/m 38,9 km/h (6 Bft)
09.08.2014 07:42 19,1 C 17,2 C 92 % 1003,7 hPa 0,0 l/m 0 min 0 min 0,0 UV-I 58 W/m 42,4 km/h (6 Bft)
09.08.2014 07:44 19,1 C 17,2 C 92 % 1003,7 hPa 0,0 l/m 0 min 0 min 0,0 UV-I 76 W/m 53,0 km/h (7 Bft)
09.08.2014 07:46 19,1 C 17,2 C 92 % 1003,7 hPa 0,0 l/m 0 min 0 min 0,0 UV-I 62 W/m 31,7 km/h (5 Bft)
09.08.2014 07:48 19,1 C 17,2 C 92 % 1003,7 hPa 0,0 l/m 0 min 0 min 0,0 UV-I 41 W/m 46,0 km/h (6 Bft)
09.08.2014 07:50 19,1 C 17,2 C 92 % 1003,8 hPa 0,0 l/m 0 min 2 min 0,0 UV-I 34 W/m 35,4 km/h (5 Bft)
09.08.2014 07:52 19,0 C 17,2 C 92 % 1003,8 hPa 0,0 l/m 0 min 2 min 0,0 UV-I 38 W/m 46,0 km/h (6 Bft)
09.08.2014 07:54 19,0 C 17,2 C 92 % 1004,0 hPa 0,0 l/m 0 min 2 min 0,0 UV-I 48 W/m 53,0 km/h (7 Bft)
09.08.2014 07:56 18,9 C 17,2 C 92 % 1003,9 hPa 0,0 l/m 0 min 2 min 0,0 UV-I 41 W/m 88,4 km/h (10 Bft)
09.08.2014 07:58 18,9 C 17,2 C 92 % 1004,2 hPa 0,0 l/m 0 min 2 min 0,0 UV-I 43 W/m 67,1 km/h (8 Bft)
09.08.2014 08:00 18,9 C 17,2 C 92 % 1004,3 hPa 0,0 l/m 0 min 0 min 0,0 UV-I 38 W/m 60,2 km/h (7 Bft)
09.08.2014 08:02 18,9 C 17,2 C 92 % 1004,3 hPa 0,0 l/m 0 min 0 min 0,0 UV-I 29 W/m 53,0 km/h (7 Bft)
09.08.2014 08:04 18,9 C 17,2 C 92 % 1004,4 hPa 0,0 l/m 0 min 0 min 0,0 UV-I 22 W/m 53,0 km/h (7 Bft)
09.08.2014 08:06 18,9 C 17,2 C 93 % 1004,4 hPa 0,0 l/m 0 min 0 min 0,0 UV-I 34 W/m 63,7 km/h (8 Bft)
09.08.2014 08:08 18,8 C 17,2 C 93 % 1004,4 hPa 0,0 l/m 0 min 0 min 0,0 UV-I 44 W/m 56,5 km/h (7 Bft)
09.08.2014 08:10 18,8 C 17,2 C 93 % 1004,4 hPa 0,0 l/m 0 min 0 min 0,0 UV-I 52 W/m 67,1 km/h (8 Bft)
09.08.2014 08:12 18,8 C 17,2 C 93 % 1004,5 hPa 0,0 l/m 0 min 0 min 0,0 UV-I 73 W/m 63,7 km/h (8 Bft)
09.08.2014 08:14 18,7 C 17,2 C 93 % 1004,5 hPa 0,0 l/m 0 min 0 min 0,0 UV-I 100 W/m 60,2 km/h (7 Bft)
09.08.2014 08:16 18,7 C 17,2 C 93 % 1004,6 hPa 0,0 l/m 0 min 0 min 0,0 UV-I 110 W/m 49,5 km/h (6 Bft)
09.08.2014 08:18 18,7 C 17,2 C 93 % 1004,8 hPa 0,0 l/m 0 min 0 min 0,0 UV-I 70 W/m 60,2 km/h (7 Bft)
09.08.2014 08:20 18,7 C 17,2 C 93 % 1004,7 hPa 0,0 l/m 0 min 0 min 0,0 UV-I 36 W/m 63,7 km/h (8 Bft)
09.08.2014 08:22 18,7 C 17,2 C 93 % 1004,8 hPa 0,0 l/m 0 min 0 min 0,0 UV-I 59 W/m 63,7 km/h (8 Bft)
09.08.2014 08:24 18,6 C 17,2 C 93 % 1004,9 hPa 0,0 l/m 0 min 0 min 0,0 UV-I 73 W/m 74,2 km/h (8 Bft)
09.08.2014 08:26 18,6 C 17,2 C 93 % 1005,0 hPa 0,0 l/m 0 min 0 min 0,0 UV-I 70 W/m 70,6 km/h (8 Bft)
09.08.2014 08:28 18,6 C 17,2 C 93 % 1005,0 hPa 0,0 l/m 0 min 0 min 0,0 UV-I 79 W/m 42,4 km/h (6 Bft)
09.08.2014 08:30 18,5 C 17,2 C 92 % 1005,2 hPa 0,0 l/m 0 min 0 min 0,0 UV-I 86 W/m 53,0 km/h (7 Bft)
09.08.2014 08:32 18,4 C 17,2 C 91 % 1005,2 hPa 0,0 l/m 0 min 0 min 0,0 UV-I 96 W/m 63,7 km/h (8 Bft)
09.08.2014 08:34 18,3 C 17,2 C 90 % 1005,3 hPa 0,0 l/m 0 min 0 min 0,0 UV-I 100 W/m 63,7 km/h (8 Bft)
09.08.2014 08:36 18,3 C 17,2 C 89 % 1005,4 hPa 0,0 l/m 0 min 0 min 0,0 UV-I 94 W/m 56,5 km/h (7 Bft)
09.08.2014 08:38 18,3 C 16,7 C 89 % 1005,5 hPa 0,0 l/m 0 min 0 min 0,0 UV-I 82 W/m 53,0 km/h (7 Bft)
09.08.2014 08:40 18,2 C 16,7 C 89 % 1005,5 hPa 0,0 l/m 0 min 0 min 0,0 UV-I 75 W/m 63,7 km/h (8 Bft)
09.08.2014 08:42 18,2 C 16,7 C 88 % 1005,5 hPa 0,0 l/m 0 min 0 min 0,0 UV-I 81 W/m 49,5 km/h (6 Bft)
09.08.2014 08:44 18,2 C 16,7 C 89 % 1005,8 hPa 0,0 l/m 0 min 0 min 0,0 UV-I 80 W/m 49,5 km/h (6 Bft)
09.08.2014 08:46 18,1 C 16,7 C 88 % 1005,8 hPa 0,0 l/m 0 min 0 min 0,0 UV-I 72 W/m 46,0 km/h (6 Bft)
09.08.2014 08:48 18,1 C 16,7 C 88 % 1005,8 hPa 0,0 l/m 0 min 0 min 0,0 UV-I 67 W/m 42,4 km/h (6 Bft)
09.08.2014 08:50 18,1 C 16,7 C 88 % 1006,0 hPa 0,0 l/m 0 min 0 min 0,0 UV-I 63 W/m 38,9 km/h (6 Bft)
09.08.2014 08:52 18,0 C 16,7 C 88 % 1006,1 hPa 0,0 l/m 0 min 0 min 0,0 UV-I 62 W/m 53,0 km/h (7 Bft)
09.08.2014 08:54 17,9 C 16,7 C 88 % 1006,1 hPa 0,0 l/m 0 min 0 min 0,0 UV-I 51 W/m 49,5 km/h (6 Bft)
09.08.2014 08:56 17,8 C 16,7 C 88 % 1006,2 hPa 0,0 l/m 0 min 0 min 0,0 UV-I 69 W/m 46,0 km/h (6 Bft)
09.08.2014 08:58 17,8 C 16,7 C 88 % 1006,2 hPa 0,0 l/m 0 min 0 min 0,0 UV-I 148 W/m 53,0 km/h (7 Bft)
09.08.2014 09:00 17,7 C 16,7 C 88 % 1006,4 hPa 0,0 l/m 0 min 0 min 0,0 UV-I 180 W/m 53,0 km/h (7 Bft)
09.08.2014 09:02 17,8 C 16,7 C 88 % 1006,5 hPa 0,0 l/m 0 min 0 min 0,0 UV-I 166 W/m 63,7 km/h (8 Bft)
09.08.2014 09:04 17,7 C 16,7 C 88 % 1006,5 hPa 0,0 l/m 0 min 0 min 0,0 UV-I 142 W/m 60,2 km/h (7 Bft)
09.08.2014 09:06 17,7 C 16,7 C 88 % 1006,6 hPa 0,0 l/m 0 min 0 min 0,0 UV-I 144 W/m 46,0 km/h (6 Bft)
09.08.2014 09:08 17,7 C 16,7 C 88 % 1006,7 hPa 0,0 l/m 0 min 0 min 0,0 UV-I 108 W/m 53,0 km/h (7 Bft)
09.08.2014 09:10 17,7 C 16,1 C 88 % 1006,8 hPa 0,0 l/m 0 min 0 min 0,4 UV-I 105 W/m 49,5 km/h (6 Bft)
09.08.2014 09:12 17,8 C 16,7 C 88 % 1006,9 hPa 0,0 l/m 2 min 0 min 0,8 UV-I 347 W/m 28,2 km/h (4 Bft)
09.08.2014 09:14 17,9 C 16,7 C 89 % 1006,9 hPa 0,0 l/m 2 min 0 min 0,8 UV-I 458 W/m 35,4 km/h (5 Bft)
09.08.2014 09:16 18,0 C 16,7 C 88 % 1007,0 hPa 0,0 l/m 2 min 0 min 0,8 UV-I 478 W/m 49,5 km/h (6 Bft)
09.08.2014 09:18 18,0 C 16,7 C 88 % 1007,1 hPa 0,0 l/m 2 min 0 min 0,4 UV-I 392 W/m 56,5 km/h (7 Bft)
09.08.2014 09:20 18,0 C 16,7 C 88 % 1007,0 hPa 0,0 l/m 2 min 0 min 0,9 UV-I 453 W/m 53,0 km/h (7 Bft)
09.08.2014 09:22 18,1 C 16,7 C 87 % 1007,1 hPa 0,0 l/m 2 min 0 min 0,8 UV-I 478 W/m 38,9 km/h (6 Bft)
09.08.2014 09:24 18,1 C 16,7 C 88 % 1007,2 hPa 0,0 l/m 2 min 0 min 1,0 UV-I 459 W/m 31,7 km/h (5 Bft)
09.08.2014 09:26 18,2 C 16,7 C 88 % 1007,2 hPa 0,0 l/m 2 min 0 min 1,0 UV-I 454 W/m 63,7 km/h (8 Bft)
09.08.2014 09:28 18,2 C 16,7 C 87 % 1007,3 hPa 0,0 l/m 2 min 0 min 1,0 UV-I 460 W/m 70,6 km/h (8 Bft)
09.08.2014 09:30 18,3 C 16,7 C 86 % 1007,4 hPa 0,0 l/m 2 min 0 min 1,1 UV-I 464 W/m 53,0 km/h (7 Bft)
09.08.2014 09:32 18,4 C 16,7 C 86 % 1007,5 hPa 0,0 l/m 2 min 0 min 1,1 UV-I 467 W/m 42,4 km/h (6 Bft)
09.08.2014 09:34 18,5 C 16,7 C 86 % 1007,5 hPa 0,0 l/m 2 min 0 min 1,2 UV-I 476 W/m 46,0 km/h (6 Bft)
09.08.2014 09:36 18,6 C 17,2 C 86 % 1007,7 hPa 0,0 l/m 2 min 0 min 1,2 UV-I 451 W/m 63,7 km/h (8 Bft)
09.08.2014 09:38 18,6 C 17,2 C 85 % 1007,7 hPa 0,0 l/m 2 min 0 min 1,2 UV-I 489 W/m 60,2 km/h (7 Bft)
09.08.2014 09:40 18,6 C 17,2 C 85 % 1007,8 hPa 0,0 l/m 2 min 0 min 1,0 UV-I 512 W/m 67,1 km/h (8 Bft)
09.08.2014 09:42 18,7 C 17,2 C 84 % 1007,8 hPa 0,0 l/m 2 min 0 min 0,8 UV-I 529 W/m 42,4 km/h (6 Bft)
09.08.2014 09:44 18,6 C 17,8 C 84 % 1008,0 hPa 0,0 l/m 2 min 0 min 0,8 UV-I 563 W/m 49,5 km/h (6 Bft)
09.08.2014 09:46 18,7 C 18,3 C 85 % 1008,0 hPa 0,0 l/m 2 min 0 min 1,2 UV-I 580 W/m 49,5 km/h (6 Bft)
09.08.2014 09:48 18,7 C 18,3 C 84 % 1008,1 hPa 0,0 l/m 2 min 0 min 0,1 UV-I 489 W/m 49,5 km/h (6 Bft)
09.08.2014 09:50 18,7 C 18,3 C 84 % 1008,1 hPa 0,0 l/m 0 min 0 min 0,0 UV-I 195 W/m 35,4 km/h (5 Bft)
09.08.2014 09:52 18,6 C 17,8 C 84 % 1008,2 hPa 0,0 l/m 0 min 0 min 0,3 UV-I 229 W/m 63,7 km/h (8 Bft)
09.08.2014 09:54 18,6 C 17,8 C 84 % 1008,2 hPa 0,0 l/m 0 min 0 min 0,7 UV-I 222 W/m 42,4 km/h (6 Bft)
09.08.2014 09:56 18,5 C 18,3 C 84 % 1008,4 hPa 0,0 l/m 0 min 0 min 1,0 UV-I 201 W/m 49,5 km/h (6 Bft)
09.08.2014 09:58 18,6 C 18,9 C 85 % 1008,4 hPa 0,0 l/m 2 min 0 min 1,1 UV-I 617 W/m 35,4 km/h (5 Bft)
09.08.2014 10:00 18,6 C 20,0 C 84 % 1008,4 hPa 0,0 l/m 2 min 0 min 1,4 UV-I 617 W/m 67,1 km/h (8 Bft)
09.08.2014 10:02 18,7 C 21,1 C 84 % 1008,4 hPa 0,0 l/m 2 min 0 min 1,5 UV-I 574 W/m 63,7 km/h (8 Bft)
09.08.2014 10:04 18,8 C 21,7 C 84 % 1008,4 hPa 0,0 l/m 2 min 0 min 1,6 UV-I 545 W/m 38,9 km/h (6 Bft)
09.08.2014 10:06 18,9 C 21,7 C 82 % 1008,5 hPa 0,0 l/m 2 min 0 min 1,7 UV-I 579 W/m 53,0 km/h (7 Bft)
09.08.2014 10:08 18,9 C 20,6 C 82 % 1008,5 hPa 0,0 l/m 2 min 0 min 1,3 UV-I 523 W/m 49,5 km/h (6 Bft)
09.08.2014 10:10 18,9 C 20,0 C 82 % 1008,6 hPa 0,0 l/m 0 min 0 min 1,0 UV-I 160 W/m 42,4 km/h (6 Bft)
09.08.2014 10:12 18,9 C 20,0 C 83 % 1008,6 hPa 0,0 l/m 0 min 0 min 1,4 UV-I 158 W/m 35,4 km/h (5 Bft)
09.08.2014 10:14 19,1 C 21,1 C 83 % 1008,8 hPa 0,0 l/m 0 min 0 min 1,8 UV-I 203 W/m 38,9 km/h (6 Bft)
09.08.2014 10:16 19,2 C 21,7 C 83 % 1008,8 hPa 0,0 l/m 2 min 0 min 1,6 UV-I 631 W/m 35,4 km/h (5 Bft)
09.08.2014 10:18 19,4 C 22,2 C 82 % 1008,9 hPa 0,0 l/m 2 min 0 min 1,7 UV-I 597 W/m 46,0 km/h (6 Bft)
09.08.2014 10:20 19,5 C 22,8 C 83 % 1008,8 hPa 0,0 l/m 2 min 0 min 1,9 UV-I 600 W/m 60,2 km/h (7 Bft)
09.08.2014 10:22 19,6 C 22,8 C 81 % 1009,0 hPa 0,0 l/m 2 min 0 min 2,0 UV-I 604 W/m 53,0 km/h (7 Bft)
09.08.2014 10:24 19,5 C 22,8 C 80 % 1009,1 hPa 0,0 l/m 2 min 0 min 2,0 UV-I 622 W/m 63,7 km/h (8 Bft)
09.08.2014 10:26 19,4 C 21,7 C 80 % 1009,0 hPa 0,0 l/m 2 min 0 min 2,0 UV-I 669 W/m 60,2 km/h (7 Bft)
09.08.2014 10:28 19,4 C 21,7 C 81 % 1009,1 hPa 0,0 l/m 2 min 0 min 2,2 UV-I 641 W/m 67,1 km/h (8 Bft)
09.08.2014 10:30 19,4 C 22,2 C 80 % 1009,1 hPa 0,0 l/m 2 min 0 min 2,1 UV-I 677 W/m 53,0 km/h (7 Bft)
09.08.2014 10:32 19,5 C 20,6 C 81 % 1009,2 hPa 0,0 l/m 2 min 0 min 1,1 UV-I 405 W/m 38,9 km/h (6 Bft)
09.08.2014 10:34 19,4 C 20,6 C 81 % 1009,3 hPa 0,0 l/m 0 min 0 min 1,2 UV-I 300 W/m 35,4 km/h (5 Bft)
09.08.2014 10:36 19,3 C 20,6 C 80 % 1009,3 hPa 0,0 l/m 2 min 0 min 1,6 UV-I 497 W/m 49,5 km/h (6 Bft)
09.08.2014 10:38 19,4 C 20,0 C 81 % 1009,3 hPa 0,0 l/m 2 min 0 min 2,0 UV-I 508 W/m 53,0 km/h (7 Bft)
09.08.2014 10:40 19,4 C 20,0 C 81 % 1009,3 hPa 0,0 l/m 2 min 0 min 1,5 UV-I 358 W/m 49,5 km/h (6 Bft)
09.08.2014 10:42 19,5 C 19,4 C 81 % 1009,4 hPa 0,0 l/m 0 min 0 min 2,0 UV-I 222 W/m 56,5 km/h (7 Bft)
09.08.2014 10:44 19,4 C 18,9 C 81 % 1009,5 hPa 0,0 l/m 0 min 0 min 1,2 UV-I 269 W/m 53,0 km/h (7 Bft)
09.08.2014 10:46 19,2 C 18,3 C 80 % 1009,6 hPa 0,0 l/m 0 min 0 min 1,3 UV-I 275 W/m 56,5 km/h (7 Bft)
09.08.2014 10:48 19,2 C 18,3 C 82 % 1009,7 hPa 0,0 l/m 0 min 0 min 1,2 UV-I 232 W/m 38,9 km/h (6 Bft)
09.08.2014 10:50 19,1 C 18,3 C 81 % 1009,7 hPa 0,0 l/m 0 min 0 min 1,3 UV-I 240 W/m 49,5 km/h (6 Bft)
09.08.2014 10:52 19,2 C 18,3 C 82 % 1009,8 hPa 0,0 l/m 0 min 0 min 1,5 UV-I 208 W/m 24,7 km/h (4 Bft)
09.08.2014 10:54 19,3 C 18,9 C 83 % 1009,8 hPa 0,0 l/m 0 min 0 min 1,6 UV-I 188 W/m 24,7 km/h (4 Bft)
09.08.2014 10:56 19,4 C 19,4 C 83 % 1009,9 hPa 0,0 l/m 0 min 0 min 1,9 UV-I 290 W/m 31,7 km/h (5 Bft)
09.08.2014 10:58 19,5 C 20,0 C 80 % 1009,8 hPa 0,0 l/m 2 min 0 min 2,6 UV-I 798 W/m 63,7 km/h (8 Bft)
09.08.2014 11:00 19,6 C 20,0 C 81 % 1010,0 hPa 0,0 l/m 2 min 0 min 1,5 UV-I 538 W/m 31,7 km/h (5 Bft)
09.08.2014 11:02 19,7 C 20,0 C 80 % 1010,0 hPa 0,0 l/m 2 min 0 min 1,7 UV-I 407 W/m 35,4 km/h (5 Bft)
09.08.2014 11:04 19,8 C 21,1 C 81 % 1010,0 hPa 0,0 l/m 2 min 0 min 2,7 UV-I 646 W/m 24,7 km/h (4 Bft)
09.08.2014 11:06 19,8 C 20,0 C 80 % 1010,1 hPa 0,0 l/m 2 min 0 min 1,9 UV-I 689 W/m 42,4 km/h (6 Bft)
09.08.2014 11:08 19,7 C 20,0 C 79 % 1010,1 hPa 0,0 l/m 2 min 0 min 2,0 UV-I 689 W/m 31,7 km/h (5 Bft)
09.08.2014 11:10 19,6 C 20,0 C 79 % 1010,1 hPa 0,0 l/m 2 min 0 min 2,1 UV-I 689 W/m 42,4 km/h (6 Bft)
09.08.2014 11:12 19,5 C 19,4 C 79 % 1010,2 hPa 0,0 l/m 0 min 0 min 1,3 UV-I 216 W/m 46,0 km/h (6 Bft)
09.08.2014 11:14 19,3 C 18,9 C 80 % 1010,1 hPa 0,0 l/m 0 min 0 min 1,5 UV-I 228 W/m 42,4 km/h (6 Bft)
09.08.2014 11:16 19,4 C 18,9 C 81 % 1010,2 hPa 0,0 l/m 2 min 0 min 2,1 UV-I 676 W/m 49,5 km/h (6 Bft)
09.08.2014 11:18 19,4 C 18,9 C 80 % 1010,2 hPa 0,0 l/m 0 min 0 min 0,9 UV-I 229 W/m 53,0 km/h (7 Bft)
09.08.2014 11:20 19,4 C 18,9 C 81 % 1010,2 hPa 0,0 l/m 0 min 0 min 1,3 UV-I 213 W/m 35,4 km/h (5 Bft)
09.08.2014 11:22 19,4 C 18,9 C 82 % 1010,3 hPa 0,0 l/m 0 min 0 min 1,6 UV-I 222 W/m 46,0 km/h (6 Bft)
09.08.2014 11:24 19,4 C 18,9 C 81 % 1010,3 hPa 0,0 l/m 0 min 0 min 1,7 UV-I 308 W/m 60,2 km/h (7 Bft)
09.08.2014 11:26 19,4 C 18,9 C 82 % 1010,4 hPa 0,0 l/m 0 min 0 min 1,9 UV-I 276 W/m 56,5 km/h (7 Bft)
09.08.2014 11:28 19,4 C 18,9 C 81 % 1010,4 hPa 0,0 l/m 0 min 0 min 2,4 UV-I 267 W/m 49,5 km/h (6 Bft)
09.08.2014 11:30 19,6 C 20,0 C 80 % 1010,4 hPa 0,0 l/m 0 min 0 min 3,4 UV-I 311 W/m 46,0 km/h (6 Bft)
09.08.2014 11:32 19,9 C 20,0 C 80 % 1010,5 hPa 0,0 l/m 2 min 0 min 3,4 UV-I 791 W/m 56,5 km/h (7 Bft)
09.08.2014 11:34 20,1 C 20,6 C 80 % 1010,5 hPa 0,0 l/m 2 min 0 min 3,4 UV-I 808 W/m 35,4 km/h (5 Bft)
09.08.2014 11:36 20,2 C 20,0 C 79 % 1010,4 hPa 0,0 l/m 2 min 0 min 1,8 UV-I 752 W/m 28,2 km/h (4 Bft)
09.08.2014 11:38 20,2 C 19,4 C 79 % 1010,5 hPa 0,0 l/m 0 min 0 min 0,8 UV-I 113 W/m 28,2 km/h (4 Bft)
09.08.2014 11:40 20,0 C 18,9 C 79 % 1010,6 hPa 0,0 l/m 0 min 0 min 0,1 UV-I 85 W/m 31,7 km/h (5 Bft)
09.08.2014 11:42 19,8 C 18,9 C 79 % 1010,7 hPa 0,0 l/m 0 min 0 min 0,0 UV-I 103 W/m 60,2 km/h (7 Bft)
09.08.2014 11:44 19,5 C 18,9 C 79 % 1010,7 hPa 0,0 l/m 0 min 0 min 1,5 UV-I 196 W/m 38,9 km/h (6 Bft)
09.08.2014 11:46 19,4 C 18,9 C 81 % 1010,7 hPa 0,0 l/m 0 min 0 min 2,3 UV-I 275 W/m 46,0 km/h (6 Bft)
09.08.2014 11:48 19,5 C 19,4 C 80 % 1010,7 hPa 0,0 l/m 0 min 0 min 1,6 UV-I 311 W/m 49,5 km/h (6 Bft)
09.08.2014 11:50 19,5 C 19,4 C 78 % 1010,7 hPa 0,0 l/m 0 min 0 min 2,2 UV-I 309 W/m 49,5 km/h (6 Bft)
09.08.2014 11:52 19,8 C 20,0 C 80 % 1010,8 hPa 0,0 l/m 2 min 0 min 3,1 UV-I 496 W/m 42,4 km/h (6 Bft)
09.08.2014 11:54 20,1 C 20,0 C 77 % 1010,8 hPa 0,0 l/m 2 min 0 min 2,9 UV-I 724 W/m 53,0 km/h (7 Bft)
09.08.2014 11:56 20,2 C 20,6 C 77 % 1010,8 hPa 0,0 l/m 2 min 0 min 3,1 UV-I 412 W/m 49,5 km/h (6 Bft)
09.08.2014 11:58 20,4 C 20,6 C 76 % 1010,8 hPa 0,0 l/m 2 min 0 min 3,8 UV-I 578 W/m 46,0 km/h (6 Bft)
09.08.2014 12:00 20,6 C 20,6 C 75 % 1010,8 hPa 0,0 l/m 2 min 0 min 3,8 UV-I 451 W/m 53,0 km/h (7 Bft)
09.08.2014 12:02 20,6 C 20,6 C 76 % 1010,8 hPa 0,0 l/m 2 min 0 min 3,4 UV-I 448 W/m 42,4 km/h (6 Bft)
09.08.2014 12:05 20,4 C 20,0 C 76 % 1010,8 hPa 0,0 l/m 0 min 0 min 1,7 UV-I 232 W/m 38,9 km/h (6 Bft)
09.08.2014 12:06 20,3 C 19,4 C 76 % 1010,8 hPa 0,0 l/m 0 min 0 min 1,6 UV-I 237 W/m 38,9 km/h (6 Bft)
09.08.2014 12:08 20,2 C 20,6 C 78 % 1010,8 hPa 0,0 l/m 0 min 0 min 3,0 UV-I 232 W/m 46,0 km/h (6 Bft)
09.08.2014 12:10 20,3 C 20,6 C 78 % 1010,9 hPa 0,0 l/m 2 min 0 min 4,1 UV-I 702 W/m 35,4 km/h (5 Bft)
09.08.2014 12:12 20,4 C 20,6 C 77 % 1010,9 hPa 0,0 l/m 2 min 0 min 4,0 UV-I 716 W/m 46,0 km/h (6 Bft)
09.08.2014 12:14 20,6 C 21,1 C 76 % 1010,9 hPa 0,0 l/m 2 min 0 min 3,9 UV-I 746 W/m 28,2 km/h (4 Bft)
09.08.2014 12:16 20,9 C 21,7 C 76 % 1011,1 hPa 0,0 l/m 2 min 0 min 4,1 UV-I 847 W/m 46,0 km/h (6 Bft)
09.08.2014 12:18 21,0 C 21,1 C 74 % 1011,1 hPa 0,0 l/m 2 min 0 min 3,0 UV-I 807 W/m 67,1 km/h (8 Bft)
09.08.2014 12:20 20,8 C 20,6 C 73 % 1011,1 hPa 0,0 l/m 2 min 0 min 2,1 UV-I 605 W/m 42,4 km/h (6 Bft)
09.08.2014 12:22 20,6 C 20,0 C 74 % 1011,1 hPa 0,0 l/m 0 min 0 min 2,6 UV-I 232 W/m 38,9 km/h (6 Bft)
09.08.2014 12:24 20,6 C 20,0 C 76 % 1011,0 hPa 0,0 l/m 0 min 0 min 3,8 UV-I 274 W/m 28,2 km/h (4 Bft)
09.08.2014 12:26 20,6 C 20,0 C 75 % 1011,1 hPa 0,0 l/m 0 min 0 min 2,6 UV-I 278 W/m 38,9 km/h (6 Bft)
09.08.2014 12:28 20,6 C 20,0 C 75 % 1011,1 hPa 0,0 l/m 0 min 0 min 2,1 UV-I 209 W/m 38,9 km/h (6 Bft)
09.08.2014 12:30 20,4 C 19,4 C 75 % 1011,2 hPa 0,0 l/m 0 min 0 min 1,8 UV-I 163 W/m 49,5 km/h (6 Bft)
09.08.2014 12:32 20,4 C 20,0 C 77 % 1011,2 hPa 0,0 l/m 2 min 0 min 3,8 UV-I 673 W/m 31,7 km/h (5 Bft)
09.08.2014 12:34 20,6 C 20,6 C 76 % 1011,1 hPa 0,0 l/m 2 min 0 min 3,5 UV-I 816 W/m 21,3 km/h (4 Bft)
09.08.2014 12:36 20,7 C 20,0 C 76 % 1011,1 hPa 0,0 l/m 0 min 0 min 1,7 UV-I 184 W/m 28,2 km/h (4 Bft)
09.08.2014 12:38 20,6 C 20,0 C 75 % 1011,3 hPa 0,0 l/m 0 min 0 min 1,6 UV-I 180 W/m 35,4 km/h (5 Bft)
09.08.2014 12:40 20,7 C 21,1 C 76 % 1011,3 hPa 0,0 l/m 2 min 0 min 4,0 UV-I 510 W/m 46,0 km/h (6 Bft)
09.08.2014 12:42 20,8 C 21,1 C 75 % 1011,3 hPa 0,0 l/m 2 min 0 min 4,1 UV-I 795 W/m 46,0 km/h (6 Bft)
09.08.2014 12:44 20,8 C 20,6 C 73 % 1011,2 hPa 0,0 l/m 2 min 0 min 3,0 UV-I 791 W/m 46,0 km/h (6 Bft)
09.08.2014 12:46 20,8 C 20,6 C 74 % 1011,2 hPa 0,0 l/m 2 min 0 min 2,5 UV-I 791 W/m 46,0 km/h (6 Bft)
09.08.2014 12:48 20,8 C 20,6 C 75 % 1011,3 hPa 0,0 l/m 2 min 0 min 2,4 UV-I 686 W/m 38,9 km/h (6 Bft)
09.08.2014 12:50 20,8 C 21,1 C 74 % 1011,3 hPa 0,0 l/m 0 min 0 min 2,6 UV-I 332 W/m 49,5 km/h (6 Bft)
09.08.2014 12:52 20,9 C 21,1 C 74 % 1011,2 hPa 0,0 l/m 2 min 0 min 2,6 UV-I 801 W/m 49,5 km/h (6 Bft)
09.08.2014 12:54 21,1 C 21,1 C 73 % 1011,2 hPa 0,0 l/m 2 min 0 min 2,7 UV-I 497 W/m 56,5 km/h (7 Bft)
09.08.2014 12:56 21,2 C 21,7 C 73 % 1011,2 hPa 0,0 l/m 2 min 0 min 2,8 UV-I 566 W/m 63,7 km/h (8 Bft)
09.08.2014 12:58 21,2 C 21,1 C 73 % 1011,4 hPa 0,0 l/m 2 min 0 min 2,7 UV-I 921 W/m 49,5 km/h (6 Bft)
09.08.2014 13:00 21,1 C 20,6 C 72 % 1011,4 hPa 0,0 l/m 2 min 0 min 2,0 UV-I 477 W/m 49,5 km/h (6 Bft)
09.08.2014 13:02 21,0 C 21,1 C 74 % 1011,5 hPa 0,0 l/m 0 min 0 min 2,8 UV-I 307 W/m 35,4 km/h (5 Bft)
09.08.2014 13:04 21,2 C 21,1 C 75 % 1011,5 hPa 0,0 l/m 2 min 0 min 3,3 UV-I 871 W/m 35,4 km/h (5 Bft)
09.08.2014 13:06 21,2 C 20,6 C 74 % 1011,4 hPa 0,0 l/m 0 min 0 min 1,8 UV-I 230 W/m 28,2 km/h (4 Bft)
09.08.2014 13:08 21,1 C 20,6 C 74 % 1011,4 hPa 0,0 l/m 0 min 0 min 2,8 UV-I 249 W/m 38,9 km/h (6 Bft)
09.08.2014 13:10 21,2 C 21,1 C 74 % 1011,4 hPa 0,0 l/m 2 min 0 min 4,4 UV-I 588 W/m 42,4 km/h (6 Bft)
09.08.2014 13:12 21,3 C 21,1 C 73 % 1011,4 hPa 0,0 l/m 2 min 0 min 3,1 UV-I 863 W/m 35,4 km/h (5 Bft)
09.08.2014 13:14 21,5 C 21,1 C 75 % 1011,5 hPa 0,0 l/m 2 min 0 min 3,1 UV-I 676 W/m 42,4 km/h (6 Bft)
09.08.2014 13:16 21,7 C 21,7 C 74 % 1011,4 hPa 0,0 l/m 2 min 0 min 4,4 UV-I 645 W/m 46,0 km/h (6 Bft)
09.08.2014 13:18 21,9 C 21,7 C 72 % 1011,5 hPa 0,0 l/m 2 min 0 min 4,6 UV-I 825 W/m 67,1 km/h (8 Bft)
09.08.2014 13:20 22,1 C 21,7 C 71 % 1011,5 hPa 0,0 l/m 2 min 0 min 4,5 UV-I 791 W/m 49,5 km/h (6 Bft)
09.08.2014 13:22 21,9 C 21,7 C 72 % 1011,4 hPa 0,0 l/m 2 min 0 min 4,0 UV-I 797 W/m 42,4 km/h (6 Bft)
09.08.2014 13:24 22,0 C 21,1 C 72 % 1011,4 hPa 0,0 l/m 2 min 0 min 3,0 UV-I 620 W/m 42,4 km/h (6 Bft)
09.08.2014 13:26 21,9 C 21,1 C 71 % 1011,4 hPa 0,0 l/m 2 min 0 min 3,6 UV-I 490 W/m 46,0 km/h (6 Bft)
09.08.2014 13:28 21,8 C 21,1 C 72 % 1011,4 hPa 0,0 l/m 2 min 0 min 2,4 UV-I 905 W/m 46,0 km/h (6 Bft)
09.08.2014 13:30 21,6 C 21,1 C 72 % 1011,4 hPa 0,0 l/m 2 min 0 min 2,5 UV-I 427 W/m 31,7 km/h (5 Bft)
09.08.2014 13:32 21,7 C 21,1 C 72 % 1011,4 hPa 0,0 l/m 0 min 0 min 4,2 UV-I 244 W/m 63,7 km/h (8 Bft)
09.08.2014 13:34 22,0 C 21,7 C 72 % 1011,3 hPa 0,0 l/m 0 min 0 min 4,6 UV-I 356 W/m 56,5 km/h (7 Bft)
09.08.2014 13:36 22,3 C 22,2 C 69 % 1011,4 hPa 0,0 l/m 2 min 0 min 4,3 UV-I 914 W/m 53,0 km/h (7 Bft)
09.08.2014 13:38 22,3 C 22,2 C 70 % 1011,5 hPa 0,0 l/m 2 min 0 min 2,3 UV-I 898 W/m 56,5 km/h (7 Bft)
09.08.2014 13:40 22,1 C 21,7 C 69 % 1011,4 hPa 0,0 l/m 0 min 0 min 3,0 UV-I 259 W/m 49,5 km/h (6 Bft)
09.08.2014 13:42 22,2 C 21,7 C 70 % 1011,4 hPa 0,0 l/m 2 min 0 min 4,2 UV-I 733 W/m 24,7 km/h (4 Bft)
09.08.2014 13:44 22,4 C 21,7 C 71 % 1011,4 hPa 0,0 l/m 2 min 0 min 4,2 UV-I 877 W/m 35,4 km/h (5 Bft)
09.08.2014 13:46 22,6 C 22,2 C 70 % 1011,3 hPa 0,0 l/m 2 min 0 min 4,6 UV-I 832 W/m 31,7 km/h (5 Bft)
09.08.2014 13:48 22,6 C 22,2 C 69 % 1011,4 hPa 0,0 l/m 2 min 0 min 4,6 UV-I 837 W/m 53,0 km/h (7 Bft)
09.08.2014 13:50 22,6 C 21,7 C 70 % 1011,4 hPa 0,0 l/m 2 min 0 min 2,8 UV-I 810 W/m 46,0 km/h (6 Bft)
09.08.2014 13:52 22,4 C 21,1 C 70 % 1011,5 hPa 0,0 l/m 0 min 0 min 2,2 UV-I 237 W/m 56,5 km/h (7 Bft)
09.08.2014 13:54 22,3 C 21,7 C 70 % 1011,5 hPa 0,0 l/m 2 min 0 min 4,2 UV-I 497 W/m 49,5 km/h (6 Bft)
09.08.2014 13:56 22,7 C 21,7 C 71 % 1011,4 hPa 0,0 l/m 2 min 0 min 4,7 UV-I 810 W/m 31,7 km/h (5 Bft)
09.08.2014 13:58 22,9 C 21,7 C 69 % 1011,5 hPa 0,0 l/m 2 min 0 min 3,5 UV-I 801 W/m 42,4 km/h (6 Bft)
09.08.2014 14:00 22,7 C 21,7 C 67 % 1011,5 hPa 0,0 l/m 2 min 0 min 3,9 UV-I 802 W/m 56,5 km/h (7 Bft)
09.08.2014 14:02 22,6 C 21,7 C 65 % 1011,6 hPa 0,0 l/m 2 min 0 min 3,9 UV-I 820 W/m 46,0 km/h (6 Bft)
09.08.2014 14:04 22,4 C 21,7 C 68 % 1011,5 hPa 0,0 l/m 2 min 0 min 3,3 UV-I 826 W/m 46,0 km/h (6 Bft)
09.08.2014 14:06 22,6 C 21,7 C 68 % 1011,6 hPa 0,0 l/m 2 min 0 min 3,0 UV-I 613 W/m 56,5 km/h (7 Bft)
09.08.2014 14:08 22,3 C 21,1 C 67 % 1011,7 hPa 0,0 l/m 0 min 0 min 2,0 UV-I 220 W/m 53,0 km/h (7 Bft)
09.08.2014 14:10 22,1 C 21,1 C 68 % 1011,7 hPa 0,0 l/m 0 min 0 min 2,1 UV-I 279 W/m 31,7 km/h (5 Bft)
09.08.2014 14:12 22,0 C 21,1 C 70 % 1011,8 hPa 0,0 l/m 0 min 0 min 2,5 UV-I 297 W/m 38,9 km/h (6 Bft)
09.08.2014 14:14 22,1 C 21,1 C 68 % 1011,7 hPa 0,0 l/m 2 min 0 min 4,2 UV-I 581 W/m 49,5 km/h (6 Bft)
09.08.2014 14:16 22,5 C 22,2 C 71 % 1011,7 hPa 0,0 l/m 2 min 0 min 4,6 UV-I 872 W/m 38,9 km/h (6 Bft)
09.08.2014 14:18 23,0 C 22,2 C 69 % 1011,8 hPa 0,0 l/m 2 min 0 min 4,5 UV-I 876 W/m 46,0 km/h (6 Bft)
09.08.2014 14:20 23,1 C 22,2 C 67 % 1011,8 hPa 0,0 l/m 2 min 0 min 3,4 UV-I 891 W/m 46,0 km/h (6 Bft)
09.08.2014 14:22 23,0 C 22,2 C 67 % 1011,8 hPa 0,0 l/m 2 min 0 min 3,1 UV-I 919 W/m 53,0 km/h (7 Bft)
09.08.2014 14:24 22,7 C 21,7 C 66 % 1011,8 hPa 0,0 l/m 2 min 0 min 2,8 UV-I 631 W/m 63,7 km/h (8 Bft)
09.08.2014 14:26 22,5 C 21,7 C 66 % 1011,8 hPa 0,0 l/m 0 min 0 min 3,5 UV-I 270 W/m 53,0 km/h (7 Bft)
09.08.2014 14:28 22,3 C 21,1 C 66 % 1011,7 hPa 0,0 l/m 2 min 0 min 3,1 UV-I 816 W/m 67,1 km/h (8 Bft)
09.08.2014 14:30 22,3 C 21,1 C 68 % 1011,7 hPa 0,0 l/m 2 min 0 min 4,2 UV-I 816 W/m 35,4 km/h (5 Bft)
09.08.2014 14:32 22,6 C 21,7 C 68 % 1011,7 hPa 0,0 l/m 2 min 0 min 4,3 UV-I 779 W/m 49,5 km/h (6 Bft)
09.08.2014 14:34 22,7 C 21,7 C 67 % 1011,8 hPa 0,0 l/m 2 min 0 min 4,2 UV-I 767 W/m 53,0 km/h (7 Bft)
09.08.2014 14:36 22,9 C 21,7 C 65 % 1011,8 hPa 0,0 l/m 2 min 0 min 3,3 UV-I 798 W/m 46,0 km/h (6 Bft)
09.08.2014 14:38 22,9 C 21,7 C 67 % 1011,7 hPa 0,0 l/m 2 min 0 min 4,0 UV-I 779 W/m 46,0 km/h (6 Bft)
09.08.2014 14:40 23,1 C 22,2 C 66 % 1011,7 hPa 0,0 l/m 2 min 0 min 4,1 UV-I 826 W/m 46,0 km/h (6 Bft)
09.08.2014 14:42 23,1 C 22,2 C 65 % 1011,8 hPa 0,0 l/m 2 min 0 min 3,2 UV-I 846 W/m 49,5 km/h (6 Bft)
09.08.2014 14:44 23,1 C 22,2 C 66 % 1011,9 hPa 0,0 l/m 2 min 0 min 3,5 UV-I 846 W/m 42,4 km/h (6 Bft)
09.08.2014 14:46 23,2 C 22,8 C 67 % 1012,0 hPa 0,0 l/m 2 min 0 min 3,8 UV-I 820 W/m 31,7 km/h (5 Bft)
09.08.2014 14:48 23,2 C 22,2 C 65 % 1012,0 hPa 0,0 l/m 2 min 0 min 2,0 UV-I 540 W/m 42,4 km/h (6 Bft)
09.08.2014 14:50 22,9 C 21,7 C 66 % 1011,9 hPa 0,0 l/m 0 min 0 min 2,2 UV-I 230 W/m 38,9 km/h (6 Bft)
09.08.2014 14:52 22,9 C 22,2 C 66 % 1011,9 hPa 0,0 l/m 2 min 0 min 3,9 UV-I 423 W/m 46,0 km/h (6 Bft)
09.08.2014 14:54 23,0 C 22,2 C 66 % 1011,9 hPa 0,0 l/m 2 min 0 min 4,0 UV-I 832 W/m 31,7 km/h (5 Bft)
09.08.2014 14:56 23,1 C 22,2 C 67 % 1011,8 hPa 0,0 l/m 2 min 0 min 3,3 UV-I 793 W/m 49,5 km/h (6 Bft)
09.08.2014 14:58 23,2 C 22,2 C 66 % 1011,8 hPa 0,0 l/m 2 min 0 min 4,0 UV-I 776 W/m 42,4 km/h (6 Bft)
09.08.2014 15:00 23,3 C 22,2 C 65 % 1011,9 hPa 0,0 l/m 2 min 0 min 4,0 UV-I 768 W/m 60,2 km/h (7 Bft)
09.08.2014 15:02 23,4 C 22,8 C 64 % 1011,8 hPa 0,0 l/m 2 min 0 min 4,0 UV-I 801 W/m 49,5 km/h (6 Bft)
09.08.2014 15:04 23,8 C 23,3 C 64 % 1011,9 hPa 0,0 l/m 2 min 0 min 4,1 UV-I 825 W/m 42,4 km/h (6 Bft)
09.08.2014 15:06 23,9 C 23,3 C 64 % 1012,0 hPa 0,0 l/m 2 min 0 min 4,1 UV-I 775 W/m 46,0 km/h (6 Bft)
09.08.2014 15:08 23,9 C 23,3 C 63 % 1012,0 hPa 0,0 l/m 2 min 0 min 3,9 UV-I 764 W/m 31,7 km/h (5 Bft)
09.08.2014 15:10 23,7 C 22,8 C 63 % 1012,0 hPa 0,0 l/m 2 min 0 min 3,9 UV-I 742 W/m 53,0 km/h (7 Bft)
09.08.2014 15:12 23,6 C 22,8 C 62 % 1012,0 hPa 0,0 l/m 2 min 0 min 3,9 UV-I 723 W/m 46,0 km/h (6 Bft)
09.08.2014 15:14 23,6 C 22,8 C 62 % 1012,0 hPa 0,0 l/m 2 min 0 min 3,8 UV-I 708 W/m 46,0 km/h (6 Bft)
09.08.2014 15:16 23,6 C 22,8 C 64 % 1012,0 hPa 0,0 l/m 2 min 0 min 3,8 UV-I 704 W/m 42,4 km/h (6 Bft)
09.08.2014 15:18 23,6 C 22,8 C 64 % 1012,0 hPa 0,0 l/m 2 min 0 min 3,8 UV-I 712 W/m 38,9 km/h (6 Bft)
09.08.2014 15:20 23,6 C 22,8 C 63 % 1012,1 hPa 0,0 l/m 2 min 0 min 3,8 UV-I 725 W/m 31,7 km/h (5 Bft)
09.08.2014 15:22 23,7 C 22,8 C 66 % 1012,0 hPa 0,0 l/m 2 min 0 min 2,5 UV-I 732 W/m 28,2 km/h (4 Bft)
09.08.2014 15:24 23,6 C 22,8 C 64 % 1012,0 hPa 0,0 l/m 0 min 0 min 3,3 UV-I 275 W/m 28,2 km/h (4 Bft)
09.08.2014 15:26 23,6 C 22,8 C 65 % 1012,0 hPa 0,0 l/m 2 min 0 min 3,7 UV-I 770 W/m 28,2 km/h (4 Bft)
09.08.2014 15:28 23,8 C 23,3 C 66 % 1011,9 hPa 0,0 l/m 2 min 0 min 3,7 UV-I 768 W/m 31,7 km/h (5 Bft)
09.08.2014 15:30 24,1 C 23,3 C 63 % 1012,0 hPa 0,0 l/m 2 min 0 min 2,9 UV-I 734 W/m 35,4 km/h (5 Bft)
09.08.2014 15:32 23,9 C 23,3 C 61 % 1011,9 hPa 0,0 l/m 0 min 0 min 2,1 UV-I 232 W/m 31,7 km/h (5 Bft)
09.08.2014 15:34 23,8 C 22,8 C 60 % 1011,9 hPa 0,0 l/m 0 min 0 min 2,9 UV-I 232 W/m 56,5 km/h (7 Bft)
09.08.2014 15:36 23,7 C 22,8 C 63 % 1011,9 hPa 0,0 l/m 0 min 0 min 2,0 UV-I 331 W/m 31,7 km/h (5 Bft)
09.08.2014 15:38 23,6 C 22,8 C 62 % 1011,9 hPa 0,0 l/m 0 min 0 min 1,9 UV-I 331 W/m 38,9 km/h (6 Bft)
09.08.2014 15:40 23,3 C 22,8 C 62 % 1011,9 hPa 0,0 l/m 0 min 0 min 1,9 UV-I 320 W/m 31,7 km/h (5 Bft)
09.08.2014 15:42 23,4 C 22,8 C 63 % 1011,9 hPa 0,0 l/m 2 min 0 min 3,3 UV-I 588 W/m 38,9 km/h (6 Bft)
09.08.2014 15:44 23,7 C 23,3 C 62 % 1012,0 hPa 0,0 l/m 2 min 0 min 3,6 UV-I 813 W/m 38,9 km/h (6 Bft)
09.08.2014 15:46 23,9 C 23,3 C 62 % 1012,0 hPa 0,0 l/m 2 min 0 min 3,5 UV-I 746 W/m 28,2 km/h (4 Bft)
09.08.2014 15:48 24,0 C 23,3 C 61 % 1012,0 hPa 0,0 l/m 2 min 0 min 3,3 UV-I 697 W/m 42,4 km/h (6 Bft)
09.08.2014 15:50 24,0 C 23,3 C 61 % 1012,0 hPa 0,0 l/m 2 min 0 min 3,2 UV-I 671 W/m 49,5 km/h (6 Bft)
09.08.2014 15:52 23,9 C 23,3 C 62 % 1012,0 hPa 0,0 l/m 2 min 0 min 2,9 UV-I 608 W/m 42,4 km/h (6 Bft)
09.08.2014 15:54 23,8 C 22,8 C 62 % 1012,0 hPa 0,0 l/m 2 min 0 min 2,0 UV-I 379 W/m 42,4 km/h (6 Bft)
09.08.2014 15:56 23,4 C 22,2 C 62 % 1012,0 hPa 0,0 l/m 0 min 0 min 1,7 UV-I 172 W/m 38,9 km/h (6 Bft)
09.08.2014 15:58 23,2 C 22,2 C 64 % 1012,1 hPa 0,0 l/m 0 min 0 min 2,7 UV-I 245 W/m 28,2 km/h (4 Bft)
09.08.2014 16:00 23,4 C 22,8 C 67 % 1012,0 hPa 0,0 l/m 2 min 0 min 3,0 UV-I 698 W/m 31,7 km/h (5 Bft)
09.08.2014 16:02 23,7 C 23,3 C 65 % 1012,1 hPa 0,0 l/m 2 min 0 min 3,0 UV-I 684 W/m 35,4 km/h (5 Bft)
09.08.2014 16:04 23,8 C 23,3 C 62 % 1012,1 hPa 0,0 l/m 2 min 0 min 3,0 UV-I 669 W/m 35,4 km/h (5 Bft)
09.08.2014 16:06 23,8 C 23,3 C 63 % 1012,1 hPa 0,0 l/m 2 min 0 min 2,9 UV-I 644 W/m 31,7 km/h (5 Bft)
09.08.2014 16:08 23,6 C 22,8 C 61 % 1012,1 hPa 0,0 l/m 2 min 0 min 2,8 UV-I 635 W/m 35,4 km/h (5 Bft)
09.08.2014 16:10 23,4 C 22,8 C 63 % 1012,1 hPa 0,0 l/m 2 min 0 min 2,2 UV-I 611 W/m 31,7 km/h (5 Bft)
09.08.2014 16:12 23,2 C 22,2 C 64 % 1012,2 hPa 0,0 l/m 0 min 0 min 1,4 UV-I 193 W/m 31,7 km/h (5 Bft)
09.08.2014 16:14 23,0 C 22,2 C 64 % 1012,1 hPa 0,0 l/m 0 min 0 min 1,5 UV-I 245 W/m 21,3 km/h (4 Bft)
09.08.2014 16:16 22,9 C 22,2 C 65 % 1012,2 hPa 0,0 l/m 0 min 0 min 2,0 UV-I 283 W/m 35,4 km/h (5 Bft)
09.08.2014 16:18 22,8 C 22,2 C 65 % 1012,1 hPa 0,0 l/m 0 min 0 min 1,3 UV-I 225 W/m 24,7 km/h (4 Bft)
09.08.2014 16:20 22,8 C 22,2 C 66 % 1012,2 hPa 0,0 l/m 0 min 0 min 1,2 UV-I 226 W/m 28,2 km/h (4 Bft)
09.08.2014 16:22 22,7 C 22,2 C 65 % 1012,2 hPa 0,0 l/m 0 min 0 min 1,3 UV-I 247 W/m 24,7 km/h (4 Bft)
09.08.2014 16:24 22,8 C 22,2 C 68 % 1012,2 hPa 0,0 l/m 2 min 0 min 1,6 UV-I 343 W/m 31,7 km/h (5 Bft)
09.08.2014 16:26 22,9 C 22,2 C 65 % 1012,2 hPa 0,0 l/m 2 min 0 min 1,7 UV-I 343 W/m 31,7 km/h (5 Bft)
09.08.2014 16:28 22,9 C 22,2 C 66 % 1012,2 hPa 0,0 l/m 0 min 0 min 1,8 UV-I 283 W/m 28,2 km/h (4 Bft)
09.08.2014 16:30 23,0 C 22,8 C 65 % 1012,2 hPa 0,0 l/m 2 min 0 min 2,4 UV-I 528 W/m 28,2 km/h (4 Bft)
09.08.2014 16:32 23,2 C 22,8 C 65 % 1012,2 hPa 0,0 l/m 2 min 0 min 2,2 UV-I 680 W/m 24,7 km/h (4 Bft)
09.08.2014 16:34 23,4 C 22,8 C 64 % 1012,2 hPa 0,0 l/m 2 min 0 min 2,3 UV-I 633 W/m 31,7 km/h (5 Bft)
09.08.2014 16:36 23,6 C 22,8 C 63 % 1012,1 hPa 0,0 l/m 2 min 0 min 1,9 UV-I 628 W/m 35,4 km/h (5 Bft)
09.08.2014 16:38 23,7 C 22,8 C 63 % 1012,1 hPa 0,0 l/m 2 min 0 min 2,1 UV-I 628 W/m 31,7 km/h (5 Bft)
09.08.2014 16:40 23,7 C 22,8 C 64 % 1012,1 hPa 0,0 l/m 2 min 0 min 2,0 UV-I 628 W/m 38,9 km/h (6 Bft)
09.08.2014 16:42 23,7 C 22,8 C 64 % 1012,3 hPa 0,0 l/m 2 min 0 min 2,1 UV-I 574 W/m 49,5 km/h (6 Bft)
09.08.2014 16:44 23,6 C 22,2 C 63 % 1012,2 hPa 0,0 l/m 2 min 0 min 1,9 UV-I 540 W/m 42,4 km/h (6 Bft)
09.08.2014 16:46 23,3 C 22,2 C 62 % 1012,2 hPa 0,0 l/m 2 min 0 min 1,8 UV-I 540 W/m 38,9 km/h (6 Bft)
09.08.2014 16:48 23,4 C 22,2 C 63 % 1012,2 hPa 0,0 l/m 2 min 0 min 2,0 UV-I 539 W/m 24,7 km/h (4 Bft)
09.08.2014 16:50 23,7 C 22,8 C 65 % 1012,2 hPa 0,0 l/m 2 min 0 min 1,9 UV-I 515 W/m 42,4 km/h (6 Bft)
09.08.2014 16:52 23,7 C 22,2 C 63 % 1012,1 hPa 0,0 l/m 2 min 0 min 1,7 UV-I 470 W/m 35,4 km/h (5 Bft)
09.08.2014 16:54 23,7 C 22,2 C 63 % 1012,1 hPa 0,0 l/m 2 min 0 min 1,3 UV-I 358 W/m 46,0 km/h (6 Bft)
09.08.2014 16:56 23,6 C 22,2 C 63 % 1012,1 hPa 0,0 l/m 0 min 0 min 1,4 UV-I 250 W/m 21,3 km/h (4 Bft)
09.08.2014 16:58 23,4 C 22,2 C 62 % 1012,1 hPa 0,0 l/m 2 min 0 min 1,5 UV-I 422 W/m 31,7 km/h (5 Bft)
09.08.2014 17:00 23,3 C 22,2 C 62 % 1012,1 hPa 0,0 l/m 2 min 0 min 1,5 UV-I 408 W/m 28,2 km/h (4 Bft)
09.08.2014 17:02 23,3 C 22,2 C 63 % 1012,1 hPa 0,0 l/m 2 min 0 min 1,5 UV-I 438 W/m 24,7 km/h (4 Bft)
09.08.2014 17:04 23,3 C 22,2 C 62 % 1012,1 hPa 0,0 l/m 2 min 0 min 1,1 UV-I 441 W/m 31,7 km/h (5 Bft)
09.08.2014 17:06 23,2 C 21,7 C 62 % 1012,1 hPa 0,0 l/m 0 min 0 min 1,2 UV-I 270 W/m 24,7 km/h (4 Bft)
09.08.2014 17:08 23,0 C 21,7 C 63 % 1012,0 hPa 0,0 l/m 0 min 0 min 0,9 UV-I 179 W/m 21,3 km/h (4 Bft)
09.08.2014 17:10 22,8 C 21,7 C 63 % 1012,1 hPa 0,0 l/m 0 min 0 min 0,8 UV-I 198 W/m 31,7 km/h (5 Bft)
09.08.2014 17:12 22,8 C 21,7 C 63 % 1012,1 hPa 0,0 l/m 2 min 0 min 1,1 UV-I 357 W/m 49,5 km/h (6 Bft)
09.08.2014 17:14 22,9 C 21,7 C 64 % 1012,1 hPa 0,0 l/m 2 min 0 min 1,2 UV-I 431 W/m 42,4 km/h (6 Bft)
09.08.2014 17:16 23,0 C 21,7 C 65 % 1012,1 hPa 0,0 l/m 2 min 0 min 1,2 UV-I 384 W/m 17,7 km/h (3 Bft)
09.08.2014 17:18 23,1 C 21,7 C 63 % 1012,1 hPa 0,0 l/m 2 min 0 min 1,2 UV-I 387 W/m 31,7 km/h (5 Bft)
09.08.2014 17:20 23,2 C 21,7 C 63 % 1012,1 hPa 0,0 l/m 2 min 0 min 1,3 UV-I 454 W/m 38,9 km/h (6 Bft)
09.08.2014 17:22 23,2 C 21,7 C 64 % 1012,1 hPa 0,0 l/m 2 min 0 min 1,3 UV-I 431 W/m 46,0 km/h (6 Bft)
09.08.2014 17:24 23,2 C 21,7 C 63 % 1012,1 hPa 0,0 l/m 2 min 0 min 1,2 UV-I 397 W/m 31,7 km/h (5 Bft)
09.08.2014 17:26 23,3 C 21,7 C 62 % 1012,1 hPa 0,0 l/m 2 min 0 min 1,2 UV-I 377 W/m 35,4 km/h (5 Bft)
09.08.2014 17:28 23,2 C 21,7 C 61 % 1012,2 hPa 0,0 l/m 2 min 0 min 1,0 UV-I 326 W/m 28,2 km/h (4 Bft)
09.08.2014 17:30 23,1 C 21,7 C 63 % 1012,2 hPa 0,0 l/m 2 min 0 min 0,9 UV-I 304 W/m 35,4 km/h (5 Bft)
09.08.2014 17:32 23,1 C 21,7 C 63 % 1012,2 hPa 0,0 l/m 2 min 0 min 0,8 UV-I 298 W/m 38,9 km/h (6 Bft)
09.08.2014 17:34 23,1 C 21,7 C 64 % 1012,2 hPa 0,0 l/m 2 min 0 min 0,8 UV-I 278 W/m 31,7 km/h (5 Bft)
09.08.2014 17:36 23,0 C 21,7 C 63 % 1012,2 hPa 0,0 l/m 2 min 0 min 0,7 UV-I 259 W/m 42,4 km/h (6 Bft)
09.08.2014 17:38 22,9 C 21,7 C 64 % 1012,2 hPa 0,0 l/m 0 min 0 min 0,7 UV-I 227 W/m 42,4 km/h (6 Bft)
09.08.2014 17:40 22,9 C 21,1 C 64 % 1012,2 hPa 0,0 l/m 0 min 0 min 0,6 UV-I 246 W/m 49,5 km/h (6 Bft)
09.08.2014 17:42 22,8 C 21,1 C 63 % 1012,3 hPa 0,0 l/m 2 min 0 min 0,6 UV-I 266 W/m 46,0 km/h (6 Bft)
09.08.2014 17:44 22,7 C 21,1 C 65 % 1012,2 hPa 0,0 l/m 0 min 0 min 0,6 UV-I 218 W/m 35,4 km/h (5 Bft)
09.08.2014 17:46 22,6 C 21,1 C 64 % 1012,1 hPa 0,0 l/m 2 min 0 min 0,6 UV-I 252 W/m 38,9 km/h (6 Bft)
09.08.2014 17:48 22,6 C 21,1 C 66 % 1012,2 hPa 0,0 l/m 2 min 0 min 0,6 UV-I 307 W/m 24,7 km/h (4 Bft)
09.08.2014 17:50 22,6 C 21,1 C 65 % 1012,2 hPa 0,0 l/m 2 min 0 min 0,6 UV-I 363 W/m 21,3 km/h (4 Bft)
09.08.2014 17:52 22,7 C 21,7 C 64 % 1012,2 hPa 0,0 l/m 2 min 0 min 0,6 UV-I 381 W/m 24,7 km/h (4 Bft)
09.08.2014 17:54 22,7 C 21,7 C 66 % 1012,2 hPa 0,0 l/m 2 min 0 min 0,6 UV-I 400 W/m 21,3 km/h (4 Bft)
09.08.2014 17:56 22,9 C 21,7 C 66 % 1012,2 hPa 0,0 l/m 2 min 0 min 0,6 UV-I 418 W/m 21,3 km/h (4 Bft)
09.08.2014 17:58 23,0 C 21,7 C 66 % 1012,2 hPa 0,0 l/m 2 min 0 min 0,6 UV-I 366 W/m 17,7 km/h (3 Bft)
09.08.2014 18:00 23,1 C 21,7 C 64 % 1012,2 hPa 0,0 l/m 2 min 0 min 0,6 UV-I 358 W/m 24,7 km/h (4 Bft)
09.08.2014 18:02 23,2 C 21,7 C 66 % 1012,1 hPa 0,0 l/m 2 min 0 min 0,6 UV-I 376 W/m 21,3 km/h (4 Bft)
09.08.2014 18:05 23,3 C 21,7 C 65 % 1012,1 hPa 0,0 l/m 2 min 0 min 0,5 UV-I 354 W/m 21,3 km/h (4 Bft)
09.08.2014 18:06 23,3 C 21,7 C 66 % 1012,1 hPa 0,0 l/m 1 min 0 min 0,5 UV-I 374 W/m 46,0 km/h (6 Bft)
09.08.2014 18:08 23,3 C 21,7 C 64 % 1012,1 hPa 0,0 l/m 2 min 0 min 0,5 UV-I 368 W/m 31,7 km/h (5 Bft)
09.08.2014 18:10 23,2 C 21,7 C 64 % 1012,1 hPa 0,0 l/m 2 min 0 min 0,5 UV-I 345 W/m 35,4 km/h (5 Bft)
09.08.2014 18:12 23,2 C 21,7 C 64 % 1012,2 hPa 0,0 l/m 2 min 0 min 0,2 UV-I 316 W/m 28,2 km/h (4 Bft)
09.08.2014 18:14 23,1 C 21,7 C 64 % 1012,2 hPa 0,0 l/m 2 min 0 min 0,0 UV-I 294 W/m 38,9 km/h (6 Bft)
09.08.2014 18:16 23,0 C 21,1 C 63 % 1012,2 hPa 0,0 l/m 2 min 0 min 0,0 UV-I 339 W/m 31,7 km/h (5 Bft)
09.08.2014 18:18 23,0 C 21,1 C 65 % 1012,2 hPa 0,0 l/m 2 min 0 min 0,0 UV-I 343 W/m 17,7 km/h (3 Bft)
09.08.2014 18:20 23,0 C 21,1 C 64 % 1012,1 hPa 0,0 l/m 2 min 0 min 0,0 UV-I 319 W/m 28,2 km/h (4 Bft)
09.08.2014 18:22 22,9 C 21,1 C 64 % 1012,1 hPa 0,0 l/m 2 min 0 min 0,0 UV-I 320 W/m 28,2 km/h (4 Bft)
09.08.2014 18:24 23,0 C 21,1 C 66 % 1012,1 hPa 0,0 l/m 2 min 0 min 0,0 UV-I 312 W/m 14,2 km/h (3 Bft)
09.08.2014 18:26 23,1 C 21,1 C 66 % 1012,1 hPa 0,0 l/m 2 min 0 min 0,0 UV-I 285 W/m 17,7 km/h (3 Bft)
09.08.2014 18:28 23,1 C 21,1 C 66 % 1012,1 hPa 0,0 l/m 2 min 0 min 0,0 UV-I 272 W/m 24,7 km/h (4 Bft)
09.08.2014 18:30 23,0 C 21,1 C 65 % 1012,1 hPa 0,0 l/m 2 min 0 min 0,0 UV-I 276 W/m 31,7 km/h (5 Bft)
09.08.2014 18:32 22,9 C 21,1 C 65 % 1012,1 hPa 0,0 l/m 2 min 0 min 0,0 UV-I 281 W/m 35,4 km/h (5 Bft)
09.08.2014 18:34 22,9 C 21,1 C 66 % 1012,1 hPa 0,0 l/m 2 min 0 min 0,0 UV-I 286 W/m 17,7 km/h (3 Bft)
09.08.2014 18:36 22,8 C 21,1 C 66 % 1012,1 hPa 0,0 l/m 2 min 0 min 0,0 UV-I 292 W/m 42,4 km/h (6 Bft)
09.08.2014 18:38 22,8 C 21,1 C 65 % 1012,0 hPa 0,0 l/m 2 min 0 min 0,0 UV-I 274 W/m 31,7 km/h (5 Bft)
09.08.2014 18:40 22,8 C 21,1 C 66 % 1012,0 hPa 0,0 l/m 2 min 0 min 0,0 UV-I 266 W/m 28,2 km/h (4 Bft)
09.08.2014 18:42 22,8 C 21,1 C 66 % 1012,1 hPa 0,0 l/m 2 min 0 min 0,0 UV-I 246 W/m 28,2 km/h (4 Bft)
09.08.2014 18:44 22,8 C 21,1 C 65 % 1012,1 hPa 0,0 l/m 2 min 0 min 0,0 UV-I 244 W/m 28,2 km/h (4 Bft)
09.08.2014 18:46 22,7 C 21,1 C 65 % 1012,1 hPa 0,0 l/m 2 min 0 min 0,0 UV-I 233 W/m 31,7 km/h (5 Bft)
09.08.2014 18:48 22,7 C 21,1 C 66 % 1012,1 hPa 0,0 l/m 2 min 0 min 0,0 UV-I 232 W/m 31,7 km/h (5 Bft)
09.08.2014 18:50 22,7 C 21,1 C 67 % 1012,0 hPa 0,0 l/m 2 min 0 min 0,0 UV-I 241 W/m 35,4 km/h (5 Bft)
09.08.2014 18:52 22,7 C 21,1 C 65 % 1012,0 hPa 0,0 l/m 2 min 0 min 0,0 UV-I 219 W/m 28,2 km/h (4 Bft)
09.08.2014 18:54 22,7 C 21,1 C 66 % 1012,1 hPa 0,0 l/m 2 min 0 min 0,0 UV-I 207 W/m 31,7 km/h (5 Bft)
09.08.2014 18:56 22,7 C 21,1 C 66 % 1012,0 hPa 0,0 l/m 2 min 0 min 0,0 UV-I 207 W/m 38,9 km/h (6 Bft)
09.08.2014 18:58 22,6 C 20,6 C 66 % 1012,0 hPa 0,0 l/m 2 min 0 min 0,0 UV-I 167 W/m 31,7 km/h (5 Bft)
09.08.2014 19:00 22,6 C 20,6 C 65 % 1012,0 hPa 0,0 l/m 2 min 0 min 0,0 UV-I 157 W/m 42,4 km/h (6 Bft)
09.08.2014 19:02 22,5 C 20,6 C 67 % 1012,0 hPa 0,0 l/m 0 min 0 min 0,0 UV-I 144 W/m 24,7 km/h (4 Bft)
09.08.2014 19:04 22,4 C 20,6 C 67 % 1012,1 hPa 0,0 l/m 0 min 0 min 0,0 UV-I 132 W/m 28,2 km/h (4 Bft)
09.08.2014 19:06 22,4 C 20,6 C 68 % 1012,1 hPa 0,0 l/m 0 min 0 min 0,0 UV-I 120 W/m 28,2 km/h (4 Bft)
09.08.2014 19:08 22,3 C 20,6 C 67 % 1012,1 hPa 0,0 l/m 0 min 0 min 0,0 UV-I 110 W/m 14,2 km/h (3 Bft)
09.08.2014 19:10 22,2 C 20,6 C 68 % 1012,2 hPa 0,0 l/m 0 min 0 min 0,0 UV-I 124 W/m 14,2 km/h (3 Bft)
09.08.2014 19:12 22,2 C 20,6 C 68 % 1012,1 hPa 0,0 l/m 0 min 0 min 0,0 UV-I 123 W/m 14,2 km/h (3 Bft)
09.08.2014 19:14 22,2 C 20,6 C 68 % 1012,1 hPa 0,0 l/m 0 min 0 min 0,0 UV-I 133 W/m 17,7 km/h (3 Bft)
09.08.2014 19:16 22,1 C 20,6 C 68 % 1012,1 hPa 0,0 l/m 2 min 0 min 0,0 UV-I 135 W/m 28,2 km/h (4 Bft)
09.08.2014 19:18 22,2 C 20,6 C 68 % 1012,1 hPa 0,0 l/m 2 min 0 min 0,0 UV-I 132 W/m 17,7 km/h (3 Bft)
09.08.2014 19:20 22,1 C 20,6 C 69 % 1012,1 hPa 0,0 l/m 0 min 0 min 0,0 UV-I 123 W/m 21,3 km/h (4 Bft)
09.08.2014 19:22 22,1 C 20,6 C 68 % 1012,0 hPa 0,0 l/m 0 min 0 min 0,0 UV-I 106 W/m 21,3 km/h (4 Bft)
09.08.2014 19:24 22,1 C 20,6 C 69 % 1012,1 hPa 0,0 l/m 0 min 0 min 0,0 UV-I 95 W/m 17,7 km/h (3 Bft)
09.08.2014 19:26 22,0 C 20,6 C 69 % 1012,0 hPa 0,0 l/m 0 min 0 min 0,0 UV-I 109 W/m 17,7 km/h (3 Bft)
09.08.2014 19:28 22,0 C 20,6 C 68 % 1012,0 hPa 0,0 l/m 2 min 0 min 0,0 UV-I 154 W/m 28,2 km/h (4 Bft)
09.08.2014 19:30 22,0 C 20,6 C 68 % 1012,0 hPa 0,0 l/m 2 min 0 min 0,0 UV-I 161 W/m 24,7 km/h (4 Bft)
09.08.2014 19:32 22,0 C 20,0 C 67 % 1011,9 hPa 0,0 l/m 2 min 0 min 0,0 UV-I 154 W/m 28,2 km/h (4 Bft)
09.08.2014 19:34 22,0 C 20,6 C 66 % 1011,9 hPa 0,0 l/m 2 min 0 min 0,0 UV-I 155 W/m 28,2 km/h (4 Bft)
09.08.2014 19:36 22,1 C 20,0 C 67 % 1011,9 hPa 0,0 l/m 2 min 0 min 0,0 UV-I 146 W/m 21,3 km/h (4 Bft)
09.08.2014 19:38 22,1 C 20,0 C 67 % 1011,9 hPa 0,0 l/m 2 min 0 min 0,0 UV-I 138 W/m 21,3 km/h (4 Bft)
09.08.2014 19:40 22,1 C 20,6 C 67 % 1011,9 hPa 0,0 l/m 2 min 0 min 0,0 UV-I 122 W/m 14,2 km/h (3 Bft)
09.08.2014 19:42 22,1 C 20,6 C 66 % 1011,9 hPa 0,0 l/m 2 min 0 min 0,0 UV-I 104 W/m 21,3 km/h (4 Bft)
09.08.2014 19:44 22,1 C 20,0 C 66 % 1011,9 hPa 0,0 l/m 2 min 0 min 0,0 UV-I 98 W/m 14,2 km/h (3 Bft)
09.08.2014 19:46 22,0 C 20,0 C 67 % 1011,9 hPa 0,0 l/m 2 min 0 min 0,0 UV-I 118 W/m 21,3 km/h (4 Bft)
09.08.2014 19:48 21,9 C 20,0 C 67 % 1011,9 hPa 0,0 l/m 2 min 0 min 0,0 UV-I 98 W/m 21,3 km/h (4 Bft)
09.08.2014 19:50 21,9 C 20,0 C 67 % 1011,9 hPa 0,0 l/m 0 min 0 min 0,0 UV-I 86 W/m 17,7 km/h (3 Bft)
09.08.2014 19:52 21,9 C 20,0 C 67 % 1011,8 hPa 0,0 l/m 2 min 0 min 0,0 UV-I 90 W/m 17,7 km/h (3 Bft)
09.08.2014 19:54 21,8 C 20,0 C 67 % 1011,9 hPa 0,0 l/m 2 min 0 min 0,0 UV-I 92 W/m 14,2 km/h (3 Bft)
09.08.2014 19:56 21,8 C 20,0 C 67 % 1011,9 hPa 0,0 l/m 2 min 0 min 0,0 UV-I 89 W/m 10,7 km/h (2 Bft)
09.08.2014 19:58 21,8 C 20,0 C 68 % 1011,9 hPa 0,0 l/m 2 min 0 min 0,0 UV-I 86 W/m 14,2 km/h (3 Bft)
09.08.2014 20:00 21,7 C 19,4 C 68 % 1011,9 hPa 0,0 l/m 2 min 0 min 0,0 UV-I 82 W/m 14,2 km/h (3 Bft)
09.08.2014 20:02 21,7 C 19,4 C 68 % 1011,9 hPa 0,0 l/m 2 min 0 min 0,0 UV-I 77 W/m 14,2 km/h (3 Bft)
09.08.2014 20:04 21,7 C 19,4 C 69 % 1011,9 hPa 0,0 l/m 0 min 0 min 0,0 UV-I 70 W/m 7,1 km/h (2 Bft)
09.08.2014 20:06 21,6 C 19,4 C 69 % 1012,0 hPa 0,0 l/m 0 min 0 min 0,0 UV-I 65 W/m 17,7 km/h (3 Bft)
09.08.2014 20:08 21,6 C 19,4 C 68 % 1011,8 hPa 0,0 l/m 0 min 0 min 0,0 UV-I 55 W/m 10,7 km/h (2 Bft)
09.08.2014 20:10 21,5 C 19,4 C 69 % 1012,0 hPa 0,0 l/m 0 min 0 min 0,0 UV-I 47 W/m 10,7 km/h (2 Bft)
09.08.2014 20:12 21,4 C 18,9 C 70 % 1012,0 hPa 0,0 l/m 0 min 0 min 0,0 UV-I 48 W/m 0,0 km/h (0 Bft)
09.08.2014 20:14 21,4 C 18,9 C 70 % 1012,0 hPa 0,0 l/m 0 min 0 min 0,0 UV-I 48 W/m 0,0 km/h (0 Bft)
09.08.2014 20:16 21,4 C 18,9 C 70 % 1012,0 hPa 0,0 l/m 0 min 0 min 0,0 UV-I 46 W/m 0,0 km/h (0 Bft)
09.08.2014 20:18 21,3 C 18,9 C 70 % 1012,0 hPa 0,0 l/m 0 min 0 min 0,0 UV-I 46 W/m 3,5 km/h (1 Bft)
09.08.2014 20:20 21,2 C 18,9 C 70 % 1012,0 hPa 0,0 l/m 0 min 0 min 0,0 UV-I 42 W/m 3,5 km/h (1 Bft)
09.08.2014 20:22 21,2 C 18,9 C 70 % 1012,0 hPa 0,0 l/m 0 min 0 min 0,0 UV-I 38 W/m 0,0 km/h (0 Bft)
09.08.2014 20:24 21,2 C 18,3 C 70 % 1012,0 hPa 0,0 l/m 0 min 0 min 0,0 UV-I 35 W/m 0,0 km/h (0 Bft)
09.08.2014 20:26 21,1 C 18,3 C 71 % 1012,0 hPa 0,0 l/m 0 min 0 min 0,0 UV-I 34 W/m 0,0 km/h (0 Bft)
09.08.2014 20:28 21,1 C 18,3 C 71 % 1012,0 hPa 0,0 l/m 0 min 0 min 0,0 UV-I 33 W/m 0,0 km/h (0 Bft)
09.08.2014 20:30 21,0 C 18,3 C 72 % 1012,0 hPa 0,0 l/m 0 min 0 min 0,0 UV-I 32 W/m 0,0 km/h (0 Bft)
09.08.2014 20:32 21,0 C 18,3 C 71 % 1012,0 hPa 0,0 l/m 0 min 0 min 0,0 UV-I 31 W/m 0,0 km/h (0 Bft)
09.08.2014 20:34 20,9 C 18,3 C 71 % 1012,0 hPa 0,0 l/m 0 min 0 min 0,0 UV-I 28 W/m 0,0 km/h (0 Bft)
09.08.2014 20:36 20,9 C 18,3 C 71 % 1012,0 hPa 0,0 l/m 0 min 0 min 0,0 UV-I 26 W/m 3,5 km/h (1 Bft)
09.08.2014 20:38 20,9 C 18,3 C 71 % 1011,9 hPa 0,0 l/m 0 min 0 min 0,0 UV-I 25 W/m 0,0 km/h (0 Bft)
09.08.2014 20:40 20,9 C 18,3 C 71 % 1011,9 hPa 0,0 l/m 0 min 0 min 0,0 UV-I 23 W/m 3,5 km/h (1 Bft)
09.08.2014 20:42 20,8 C 18,3 C 71 % 1011,9 hPa 0,0 l/m 0 min 0 min 0,0 UV-I 21 W/m 0,0 km/h (0 Bft)
09.08.2014 20:44 20,8 C 18,3 C 71 % 1011,8 hPa 0,0 l/m 0 min 0 min 0,0 UV-I 19 W/m 0,0 km/h (0 Bft)
09.08.2014 20:46 20,7 C 17,8 C 72 % 1011,9 hPa 0,0 l/m 0 min 0 min 0,0 UV-I 18 W/m 0,0 km/h (0 Bft)
09.08.2014 20:48 20,6 C 17,8 C 73 % 1011,9 hPa 0,0 l/m 0 min 0 min 0,0 UV-I 16 W/m 0,0 km/h (0 Bft)
09.08.2014 20:50 20,4 C 17,8 C 73 % 1011,9 hPa 0,0 l/m 0 min 0 min 0,0 UV-I 14 W/m 0,0 km/h (0 Bft)
09.08.2014 20:52 20,4 C 17,8 C 74 % 1011,8 hPa 0,0 l/m 0 min 0 min 0,0 UV-I 12 W/m 0,0 km/h (0 Bft)
09.08.2014 20:54 20,4 C 17,2 C 74 % 1011,9 hPa 0,0 l/m 0 min 0 min 0,0 UV-I 11 W/m 0,0 km/h (0 Bft)
09.08.2014 20:56 20,3 C 17,2 C 74 % 1011,8 hPa 0,0 l/m 0 min 0 min 0,0 UV-I 10 W/m 0,0 km/h (0 Bft)
09.08.2014 20:58 20,3 C 17,2 C 74 % 1011,9 hPa 0,0 l/m 0 min 0 min 0,0 UV-I 9 W/m 3,5 km/h (1 Bft)
09.08.2014 21:00 20,2 C 17,2 C 76 % 1011,9 hPa 0,0 l/m 0 min 0 min 0,0 UV-I 7 W/m 0,0 km/h (0 Bft)
09.08.2014 21:02 20,0 C 17,2 C 77 % 1011,9 hPa 0,0 l/m 0 min 0 min 0,0 UV-I 0 W/m 0,0 km/h (0 Bft)
09.08.2014 21:04 19,9 C 17,2 C 77 % 1011,9 hPa 0,0 l/m 0 min 0 min 0,0 UV-I 0 W/m 0,0 km/h (0 Bft)
09.08.2014 21:06 19,8 C 17,2 C 77 % 1012,0 hPa 0,0 l/m 0 min 0 min 0,0 UV-I 0 W/m 3,5 km/h (1 Bft)
09.08.2014 21:08 19,7 C 16,7 C 77 % 1011,9 hPa 0,0 l/m 0 min 0 min 0,0 UV-I 0 W/m 10,7 km/h (2 Bft)
09.08.2014 21:10 19,7 C 16,7 C 77 % 1012,0 hPa 0,0 l/m 0 min 0 min 0,0 UV-I 0 W/m 10,7 km/h (2 Bft)
09.08.2014 21:12 19,6 C 16,7 C 78 % 1012,0 hPa 0,0 l/m 0 min 0 min 0,0 UV-I 0 W/m 7,1 km/h (2 Bft)
09.08.2014 21:14 19,5 C 16,7 C 78 % 1012,0 hPa 0,0 l/m 0 min 0 min 0,0 UV-I 0 W/m 3,5 km/h (1 Bft)
09.08.2014 21:16 19,4 C 16,7 C 79 % 1012,0 hPa 0,0 l/m 0 min 0 min 0,0 UV-I 0 W/m 0,0 km/h (0 Bft)
09.08.2014 21:18 19,4 C 16,7 C 79 % 1012,0 hPa 0,0 l/m 0 min 0 min 0,0 UV-I 0 W/m 3,5 km/h (1 Bft)
09.08.2014 21:20 19,3 C 16,7 C 80 % 1012,0 hPa 0,0 l/m 0 min 0 min 0,0 UV-I 0 W/m 0,0 km/h (0 Bft)
09.08.2014 21:22 19,4 C 16,7 C 80 % 1012,0 hPa 0,0 l/m 0 min 0 min 0,0 UV-I 0 W/m 0,0 km/h (0 Bft)
09.08.2014 21:24 19,4 C 16,7 C 80 % 1012,0 hPa 0,0 l/m 0 min 0 min 0,0 UV-I 0 W/m 0,0 km/h (0 Bft)
09.08.2014 21:26 19,3 C 16,7 C 80 % 1012,0 hPa 0,0 l/m 0 min 0 min 0,0 UV-I 0 W/m 0,0 km/h (0 Bft)
09.08.2014 21:28 19,3 C 16,7 C 81 % 1012,0 hPa 0,0 l/m 0 min 0 min 0,0 UV-I 0 W/m 0,0 km/h (0 Bft)
09.08.2014 21:30 19,2 C 16,7 C 81 % 1012,1 hPa 0,0 l/m 0 min 0 min 0,0 UV-I 0 W/m 0,0 km/h (0 Bft)
09.08.2014 21:32 19,2 C 16,7 C 81 % 1012,1 hPa 0,0 l/m 0 min 0 min 0,0 UV-I 0 W/m 0,0 km/h (0 Bft)
09.08.2014 21:34 19,1 C 16,7 C 81 % 1012,1 hPa 0,0 l/m 0 min 0 min 0,0 UV-I 0 W/m 0,0 km/h (0 Bft)
09.08.2014 21:36 19,1 C 16,7 C 81 % 1012,1 hPa 0,0 l/m 0 min 0 min 0,0 UV-I 0 W/m 0,0 km/h (0 Bft)
09.08.2014 21:38 19,1 C 16,7 C 81 % 1012,2 hPa 0,0 l/m 0 min 0 min 0,0 UV-I 0 W/m 3,5 km/h (1 Bft)
09.08.2014 21:40 19,1 C 16,7 C 81 % 1012,1 hPa 0,0 l/m 0 min 0 min 0,0 UV-I 0 W/m 0,0 km/h (0 Bft)
09.08.2014 21:42 19,0 C 16,7 C 82 % 1012,1 hPa 0,0 l/m 0 min 0 min 0,0 UV-I 0 W/m 0,0 km/h (0 Bft)
09.08.2014 21:44 18,9 C 16,1 C 82 % 1012,1 hPa 0,0 l/m 0 min 0 min 0,0 UV-I 0 W/m 0,0 km/h (0 Bft)
09.08.2014 21:46 18,9 C 16,1 C 82 % 1012,1 hPa 0,0 l/m 0 min 0 min 0,0 UV-I 0 W/m 0,0 km/h (0 Bft)
09.08.2014 21:48 18,8 C 16,1 C 82 % 1012,1 hPa 0,0 l/m 0 min 0 min 0,0 UV-I 0 W/m 0,0 km/h (0 Bft)
09.08.2014 21:50 18,8 C 16,1 C 82 % 1012,1 hPa 0,0 l/m 0 min 0 min 0,0 UV-I 0 W/m 0,0 km/h (0 Bft)
09.08.2014 21:52 18,8 C 16,1 C 82 % 1012,1 hPa 0,0 l/m 0 min 0 min 0,0 UV-I 0 W/m 0,0 km/h (0 Bft)
09.08.2014 21:54 18,8 C 16,1 C 81 % 1012,1 hPa 0,0 l/m 0 min 0 min 0,0 UV-I 0 W/m 0,0 km/h (0 Bft)
09.08.2014 21:56 18,8 C 16,1 C 82 % 1012,1 hPa 0,0 l/m 0 min 0 min 0,0 UV-I 0 W/m 0,0 km/h (0 Bft)
09.08.2014 21:58 18,8 C 16,1 C 82 % 1012,1 hPa 0,0 l/m 0 min 0 min 0,0 UV-I 0 W/m 0,0 km/h (0 Bft)
09.08.2014 22:00 18,7 C 16,1 C 82 % 1012,1 hPa 0,0 l/m 0 min 0 min 0,0 UV-I 0 W/m 0,0 km/h (0 Bft)
09.08.2014 22:02 18,7 C 16,1 C 82 % 1012,1 hPa 0,0 l/m 0 min 0 min 0,0 UV-I 0 W/m 0,0 km/h (0 Bft)
09.08.2014 22:04 18,6 C 16,1 C 82 % 1012,1 hPa 0,0 l/m 0 min 0 min 0,0 UV-I 0 W/m 0,0 km/h (0 Bft)
09.08.2014 22:06 18,6 C 16,1 C 82 % 1012,1 hPa 0,0 l/m 0 min 0 min 0,0 UV-I 0 W/m 0,0 km/h (0 Bft)
09.08.2014 22:08 18,5 C 16,1 C 82 % 1012,1 hPa 0,0 l/m 0 min 0 min 0,0 UV-I 0 W/m 3,5 km/h (1 Bft)
09.08.2014 22:10 18,4 C 16,1 C 83 % 1012,0 hPa 0,0 l/m 0 min 0 min 0,0 UV-I 0 W/m 0,0 km/h (0 Bft)
09.08.2014 22:12 18,4 C 16,1 C 83 % 1012,0 hPa 0,0 l/m 0 min 0 min 0,0 UV-I 0 W/m 0,0 km/h (0 Bft)
09.08.2014 22:14 18,3 C 16,1 C 83 % 1012,0 hPa 0,0 l/m 0 min 0 min 0,0 UV-I 0 W/m 0,0 km/h (0 Bft)
09.08.2014 22:16 18,3 C 16,1 C 83 % 1012,0 hPa 0,0 l/m 0 min 0 min 0,0 UV-I 0 W/m 0,0 km/h (0 Bft)
09.08.2014 22:18 18,3 C 16,1 C 83 % 1012,0 hPa 0,0 l/m 0 min 0 min 0,0 UV-I 0 W/m 3,5 km/h (1 Bft)
09.08.2014 22:20 18,2 C 16,1 C 83 % 1012,0 hPa 0,0 l/m 0 min 0 min 0,0 UV-I 0 W/m 0,0 km/h (0 Bft)
09.08.2014 22:22 18,2 C 16,1 C 83 % 1012,0 hPa 0,0 l/m 0 min 0 min 0,0 UV-I 0 W/m 0,0 km/h (0 Bft)
09.08.2014 22:24 18,2 C 16,1 C 83 % 1012,0 hPa 0,0 l/m 0 min 0 min 0,0 UV-I 0 W/m 0,0 km/h (0 Bft)
09.08.2014 22:26 18,2 C 15,6 C 83 % 1012,0 hPa 0,0 l/m 0 min 0 min 0,0 UV-I 0 W/m 0,0 km/h (0 Bft)
09.08.2014 22:28 18,2 C 15,6 C 83 % 1012,0 hPa 0,0 l/m 0 min 0 min 0,0 UV-I 0 W/m 0,0 km/h (0 Bft)
09.08.2014 22:30 18,2 C 15,6 C 84 % 1012,0 hPa 0,0 l/m 0 min 0 min 0,0 UV-I 0 W/m 3,5 km/h (1 Bft)
09.08.2014 22:32 18,2 C 15,6 C 84 % 1012,0 hPa 0,0 l/m 0 min 0 min 0,0 UV-I 0 W/m 0,0 km/h (0 Bft)
09.08.2014 22:34 18,1 C 15,6 C 83 % 1012,0 hPa 0,0 l/m 0 min 0 min 0,0 UV-I 0 W/m 0,0 km/h (0 Bft)
09.08.2014 22:36 18,1 C 15,6 C 84 % 1012,0 hPa 0,0 l/m 0 min 0 min 0,0 UV-I 0 W/m 0,0 km/h (0 Bft)
09.08.2014 22:38 18,1 C 15,6 C 84 % 1011,9 hPa 0,0 l/m 0 min 0 min 0,0 UV-I 0 W/m 0,0 km/h (0 Bft)
09.08.2014 22:40 18,1 C 15,6 C 84 % 1012,0 hPa 0,0 l/m 0 min 0 min 0,0 UV-I 0 W/m 0,0 km/h (0 Bft)
09.08.2014 22:42 18,1 C 15,6 C 84 % 1012,0 hPa 0,0 l/m 0 min 0 min 0,0 UV-I 0 W/m 0,0 km/h (0 Bft)
09.08.2014 22:44 18,0 C 15,6 C 84 % 1012,0 hPa 0,0 l/m 0 min 0 min 0,0 UV-I 0 W/m 0,0 km/h (0 Bft)
09.08.2014 22:46 18,0 C 15,6 C 84 % 1011,9 hPa 0,0 l/m 0 min 0 min 0,0 UV-I 0 W/m 0,0 km/h (0 Bft)
09.08.2014 22:48 17,9 C 15,6 C 84 % 1012,0 hPa 0,0 l/m 0 min 0 min 0,0 UV-I 0 W/m 0,0 km/h (0 Bft)
09.08.2014 22:50 17,9 C 15,6 C 84 % 1012,0 hPa 0,0 l/m 0 min 0 min 0,0 UV-I 0 W/m 0,0 km/h (0 Bft)
09.08.2014 22:52 18,0 C 15,6 C 84 % 1012,0 hPa 0,0 l/m 0 min 0 min 0,0 UV-I 0 W/m 0,0 km/h (0 Bft)
09.08.2014 22:54 17,9 C 15,6 C 84 % 1012,1 hPa 0,0 l/m 0 min 0 min 0,0 UV-I 0 W/m 3,5 km/h (1 Bft)
09.08.2014 22:56 17,9 C 15,6 C 84 % 1012,0 hPa 0,0 l/m 0 min 0 min 0,0 UV-I 0 W/m 0,0 km/h (0 Bft)
09.08.2014 22:58 17,9 C 15,6 C 85 % 1012,0 hPa 0,0 l/m 0 min 0 min 0,0 UV-I 0 W/m 0,0 km/h (0 Bft)
09.08.2014 23:00 17,8 C 15,6 C 85 % 1012,0 hPa 0,0 l/m 0 min 0 min 0,0 UV-I 0 W/m 0,0 km/h (0 Bft)
09.08.2014 23:02 17,8 C 15,6 C 85 % 1012,1 hPa 0,0 l/m 0 min 0 min 0,0 UV-I 0 W/m 0,0 km/h (0 Bft)
09.08.2014 23:04 17,8 C 15,6 C 85 % 1012,0 hPa 0,0 l/m 0 min 0 min 0,0 UV-I 0 W/m 0,0 km/h (0 Bft)
09.08.2014 23:06 17,8 C 15,6 C 86 % 1012,1 hPa 0,0 l/m 0 min 0 min 0,0 UV-I 0 W/m 0,0 km/h (0 Bft)
09.08.2014 23:08 17,8 C 15,6 C 86 % 1012,0 hPa 0,0 l/m 0 min 0 min 0,0 UV-I 0 W/m 0,0 km/h (0 Bft)
09.08.2014 23:10 17,8 C 15,6 C 86 % 1012,1 hPa 0,0 l/m 0 min 0 min 0,0 UV-I 0 W/m 0,0 km/h (0 Bft)
09.08.2014 23:12 17,9 C 15,6 C 86 % 1012,0 hPa 0,0 l/m 0 min 0 min 0,0 UV-I 0 W/m 0,0 km/h (0 Bft)
09.08.2014 23:14 17,8 C 15,6 C 86 % 1012,1 hPa 0,0 l/m 0 min 0 min 0,0 UV-I 0 W/m 0,0 km/h (0 Bft)
09.08.2014 23:16 17,8 C 15,6 C 86 % 1012,1 hPa 0,0 l/m 0 min 0 min 0,0 UV-I 0 W/m 3,5 km/h (1 Bft)
09.08.2014 23:18 17,7 C 15,6 C 86 % 1012,2 hPa 0,0 l/m 0 min 0 min 0,0 UV-I 0 W/m 0,0 km/h (0 Bft)
09.08.2014 23:20 17,7 C 15,6 C 86 % 1012,1 hPa 0,0 l/m 0 min 0 min 0,0 UV-I 0 W/m 0,0 km/h (0 Bft)
09.08.2014 23:22 17,7 C 15,6 C 86 % 1012,1 hPa 0,0 l/m 0 min 0 min 0,0 UV-I 0 W/m 0,0 km/h (0 Bft)
09.08.2014 23:24 17,7 C 15,6 C 86 % 1012,1 hPa 0,0 l/m 0 min 0 min 0,0 UV-I 0 W/m 0,0 km/h (0 Bft)
09.08.2014 23:26 17,6 C 15,6 C 87 % 1012,0 hPa 0,0 l/m 0 min 0 min 0,0 UV-I 0 W/m 0,0 km/h (0 Bft)
09.08.2014 23:28 17,6 C 15,6 C 87 % 1012,0 hPa 0,0 l/m 0 min 0 min 0,0 UV-I 0 W/m 0,0 km/h (0 Bft)
09.08.2014 23:30 17,6 C 15,6 C 87 % 1012,0 hPa 0,0 l/m 0 min 0 min 0,0 UV-I 0 W/m 0,0 km/h (0 Bft)
09.08.2014 23:32 17,6 C 15,6 C 87 % 1012,0 hPa 0,0 l/m 0 min 0 min 0,0 UV-I 0 W/m 0,0 km/h (0 Bft)
09.08.2014 23:34 17,6 C 15,6 C 87 % 1012,0 hPa 0,0 l/m 0 min 0 min 0,0 UV-I 0 W/m 0,0 km/h (0 Bft)
09.08.2014 23:36 17,6 C 15,6 C 87 % 1012,0 hPa 0,0 l/m 0 min 0 min 0,0 UV-I 0 W/m 0,0 km/h (0 Bft)
09.08.2014 23:38 17,6 C 15,6 C 87 % 1011,9 hPa 0,0 l/m 0 min 0 min 0,0 UV-I 0 W/m 0,0 km/h (0 Bft)
09.08.2014 23:40 17,6 C 15,6 C 87 % 1011,9 hPa 0,0 l/m 0 min 0 min 0,0 UV-I 0 W/m 0,0 km/h (0 Bft)
09.08.2014 23:42 17,6 C 15,6 C 87 % 1011,9 hPa 0,0 l/m 0 min 0 min 0,0 UV-I 0 W/m 0,0 km/h (0 Bft)
09.08.2014 23:44 17,6 C 15,6 C 87 % 1011,9 hPa 0,0 l/m 0 min 0 min 0,0 UV-I 0 W/m 0,0 km/h (0 Bft)
09.08.2014 23:46 17,6 C 15,6 C 87 % 1011,9 hPa 0,0 l/m 0 min 0 min 0,0 UV-I 0 W/m 0,0 km/h (0 Bft)
09.08.2014 23:48 17,6 C 15,6 C 87 % 1011,9 hPa 0,0 l/m 0 min 0 min 0,0 UV-I 0 W/m 3,5 km/h (1 Bft)
09.08.2014 23:50 17,6 C 15,6 C 87 % 1011,9 hPa 0,0 l/m 0 min 0 min 0,0 UV-I 0 W/m 0,0 km/h (0 Bft)
09.08.2014 23:52 17,5 C 15,6 C 87 % 1011,9 hPa 0,0 l/m 0 min 0 min 0,0 UV-I 0 W/m 0,0 km/h (0 Bft)
09.08.2014 23:54 17,5 C 15,6 C 88 % 1012,0 hPa 0,0 l/m 0 min 0 min 0,0 UV-I 0 W/m 0,0 km/h (0 Bft)
09.08.2014 23:56 17,5 C 15,6 C 88 % 1011,9 hPa 0,0 l/m 0 min 0 min 0,0 UV-I 0 W/m 0,0 km/h (0 Bft)
09.08.2014 23:58 17,5 C 15,6 C 88 % 1012,0 hPa 0,0 l/m 0 min 0 min 0,0 UV-I 0 W/m 0,0 km/h (0 Bft)
_ Min-Zeit 23:52 22:26 15:34 03:16 - - - - - 00:00
Minimum _ 17,5 C 15,6 C 60 % 1002,1 hPa - - - - - 0,0 km/h (0 Bft)
_ Max-Zeit 15:30 15:04 00:16 16:42 00:24 07:08 00:16 13:56 12:58 07:56
Maximum _ 24,1 C 23,3 C 99 % 1012,3 hPa 0,8 l/m 2 min 2 min 4,7 UV-I 921 W/m 88,4 km/h
W (10 Bft)
Durchschnitt _ 20,1 C 18,8 C 82 % 1008,3 hPa #3,2 l/m #8:03 h #3:43 h 2,3 UV-I 344 W/m 31,2 km/h (5 Bft)
© 2014 W. Hausmann